Time,TemperatureF,DewpointF,PressureIn,WindDirection,WindDirectionDegrees,WindSpeedMPH,WindSpeedGustMPH,Humidity,HourlyPrecipIn,Conditions,Clouds,dailyrainin,SoftwareType,DateUTC
2013-01-16 00:00:00,31.1,30.1,30.12,NNW,330,0.0,1.0,96,0.00,,---,0.00,VWS V14.01,2013-01-16 06:00:00,
2013-01-16 00:02:00,31.1,30.1,30.11,NNW,330,0.0,0.0,96,0.00,,---,0.00,VWS V14.01,2013-01-16 06:02:00,
2013-01-16 00:04:00,31.1,30.1,30.12,NNW,330,0.0,0.0,96,0.00,,---,0.00,VWS V14.01,2013-01-16 06:04:00,
2013-01-16 00:05:00,31.2,30.2,30.11,NNW,330,0.0,0.0,96,0.00,,---,0.00,VWS V14.01,2013-01-16 06:05:00,
2013-01-16 00:07:00,31.2,30.2,30.11,NNW,330,0.0,0.0,96,0.00,,---,0.00,VWS V14.01,2013-01-16 06:07:00,
2013-01-16 00:09:00,31.2,30.2,30.11,NNW,330,0.0,0.0,96,0.00,,---,0.00,VWS V14.01,2013-01-16 06:09:00,
2013-01-16 00:10:00,31.1,30.1,30.11,NNW,345,0.0,0.0,96,0.00,,---,0.00,VWS V14.01,2013-01-16 06:10:00,
2013-01-16 00:12:00,31.1,30.1,30.10,NNW,328,0.0,0.0,96,0.00,,---,0.00,VWS V14.01,2013-01-16 06:12:00,
2013-01-16 00:14:00,31.1,30.1,30.10,NW,324,0.0,0.0,96,0.00,,---,0.00,VWS V14.01,2013-01-16 06:14:00,
2013-01-16 00:15:00,31.1,30.1,30.10,NW,323,0.0,0.0,96,0.00,,---,0.00,VWS V14.01,2013-01-16 06:15:00,
2013-01-16 00:17:00,31.1,30.1,30.11,NW,323,0.0,0.0,96,0.00,,---,0.00,VWS V14.01,2013-01-16 06:17:00,
2013-01-16 00:19:00,31.0,30.0,30.11,WNW,288,0.0,0.0,96,0.00,,---,0.00,VWS V14.01,2013-01-16 06:19:00,
2013-01-16 00:20:00,31.1,30.1,30.11,WNW,289,0.0,0.0,96,0.00,,---,0.00,VWS V14.01,2013-01-16 06:20:00,
2013-01-16 00:22:00,31.0,30.0,30.11,WNW,288,0.0,0.0,96,0.00,,---,0.00,VWS V14.01,2013-01-16 06:22:00,
2013-01-16 00:24:00,31.0,30.0,30.11,WNW,288,0.0,0.0,96,0.00,,---,0.00,VWS V14.01,2013-01-16 06:24:00,
2013-01-16 00:26:00,31.0,30.0,30.11,NW,315,0.0,0.0,96,0.00,,---,0.00,VWS V14.01,2013-01-16 06:26:00,
2013-01-16 00:27:00,31.0,30.0,30.10,NW,315,0.0,0.0,96,0.00,,---,0.00,VWS V14.01,2013-01-16 06:27:00,
2013-01-16 00:29:00,30.9,29.9,30.11,NW,318,0.0,0.0,96,0.00,,---,0.00,VWS V14.01,2013-01-16 06:29:00,
2013-01-16 00:31:00,30.8,29.8,30.11,NW,318,0.0,0.0,96,0.00,,---,0.00,VWS V14.01,2013-01-16 06:31:00,
2013-01-16 00:32:00,30.8,29.8,30.11,NW,318,0.0,0.0,96,0.00,,---,0.00,VWS V14.01,2013-01-16 06:32:00,
2013-01-16 00:34:00,30.7,29.7,30.11,NW,323,0.0,0.0,96,0.00,,---,0.00,VWS V14.01,2013-01-16 06:34:00,
2013-01-16 00:36:00,30.6,29.6,30.11,NNW,328,0.0,0.0,96,0.00,,---,0.00,VWS V14.01,2013-01-16 06:36:00,
2013-01-16 00:37:00,30.6,29.6,30.10,NNW,328,0.0,0.0,96,0.00,,---,0.00,VWS V14.01,2013-01-16 06:37:00,
2013-01-16 00:38:00,30.6,29.6,30.10,WNW,285,0.0,0.0,96,0.00,,---,0.00,VWS V14.01,2013-01-16 06:38:00,
2013-01-16 00:39:00,30.5,29.5,30.10,WNW,300,0.0,0.0,96,0.00,,---,0.00,VWS V14.01,2013-01-16 06:39:00,
2013-01-16 00:41:00,30.5,29.5,30.09,WNW,300,0.0,0.0,96,0.00,,---,0.00,VWS V14.01,2013-01-16 06:41:00,
2013-01-16 00:42:00,30.5,29.5,30.09,NNW,335,0.0,0.0,96,0.00,,---,0.00,VWS V14.01,2013-01-16 06:42:00,
2013-01-16 00:43:00,30.5,29.5,30.09,North,350,0.0,0.0,96,0.00,,---,0.00,VWS V14.01,2013-01-16 06:43:00,
2013-01-16 00:44:00,30.4,29.4,30.10,NW,304,0.0,0.0,96,0.00,,---,0.00,VWS V14.01,2013-01-16 06:44:00,
2013-01-16 00:46:00,30.4,29.4,30.11,NW,308,0.0,0.0,96,0.00,,---,0.00,VWS V14.01,2013-01-16 06:46:00,
2013-01-16 00:47:00,30.3,29.3,30.11,NW,308,0.0,0.0,96,0.00,,---,0.00,VWS V14.01,2013-01-16 06:47:00,
2013-01-16 00:48:00,30.4,29.4,30.11,NW,308,0.0,0.0,96,0.00,,---,0.00,VWS V14.01,2013-01-16 06:48:00,
2013-01-16 00:50:00,30.3,29.3,30.11,NW,308,0.0,0.0,96,0.00,,---,0.00,VWS V14.01,2013-01-16 06:50:00,
2013-01-16 00:51:00,30.3,29.3,30.12,NW,308,0.0,0.0,96,0.00,,---,0.00,VWS V14.01,2013-01-16 06:51:00,
2013-01-16 00:53:00,30.3,29.3,30.11,NW,308,0.0,0.0,96,0.00,,---,0.00,VWS V14.01,2013-01-16 06:53:00,
2013-01-16 00:55:00,30.2,29.2,30.10,North,353,0.0,0.0,96,0.00,,---,0.00,VWS V14.01,2013-01-16 06:55:00,
2013-01-16 00:56:00,30.2,29.2,30.10,North,360,0.0,0.0,96,0.00,,---,0.00,VWS V14.01,2013-01-16 06:56:00,
2013-01-16 00:58:00,30.2,29.2,30.10,North,4,0.0,0.0,96,0.00,,---,0.00,VWS V14.01,2013-01-16 06:58:00,
2013-01-16 01:00:00,30.1,29.1,30.11,NNE,22,0.0,0.0,96,0.00,,---,0.00,VWS V14.01,2013-01-16 07:00:00,
2013-01-16 01:01:00,30.1,29.1,30.10,NNE,20,0.0,0.0,96,0.00,,---,0.00,VWS V14.01,2013-01-16 07:01:00,
2013-01-16 01:03:00,30.1,29.1,30.10,NNW,332,0.0,0.0,96,0.00,,---,0.00,VWS V14.01,2013-01-16 07:03:00,
2013-01-16 01:05:00,30.1,29.1,30.11,NNW,330,0.0,0.0,96,0.00,,---,0.00,VWS V14.01,2013-01-16 07:05:00,
2013-01-16 01:06:00,30.1,29.1,30.11,NNW,333,0.0,0.0,96,0.00,,---,0.00,VWS V14.01,2013-01-16 07:06:00,
2013-01-16 01:08:00,30.1,29.1,30.11,NNW,340,0.0,0.0,96,0.00,,---,0.00,VWS V14.01,2013-01-16 07:08:00,
2013-01-16 01:10:00,30.0,29.0,30.11,NNE,22,1.0,1.0,96,0.00,,---,0.00,VWS V14.01,2013-01-16 07:10:00,
2013-01-16 01:11:00,30.0,29.0,30.11,North,8,0.0,1.0,96,0.00,,---,0.00,VWS V14.01,2013-01-16 07:11:00,
2013-01-16 01:13:00,30.0,29.0,30.11,NW,315,0.0,1.0,96,0.00,,---,0.00,VWS V14.01,2013-01-16 07:13:00,
2013-01-16 01:15:00,30.0,29.0,30.12,NW,315,0.0,1.0,96,0.00,,---,0.00,VWS V14.01,2013-01-16 07:15:00,
2013-01-16 01:16:00,30.0,29.0,30.12,North,3,1.0,1.0,96,0.00,,---,0.00,VWS V14.01,2013-01-16 07:16:00,
2013-01-16 01:18:00,30.0,29.0,30.11,North,353,0.0,1.0,96,0.00,,---,0.00,VWS V14.01,2013-01-16 07:18:00,
2013-01-16 01:21:00,30.0,29.0,30.10,North,350,0.0,1.0,96,0.00,,---,0.00,VWS V14.01,2013-01-16 07:21:00,
2013-01-16 01:23:00,30.0,29.0,30.10,NNW,344,0.0,1.0,96,0.00,,---,0.00,VWS V14.01,2013-01-16 07:23:00,
2013-01-16 01:26:00,29.9,28.9,30.10,NNW,339,1.0,2.0,96,0.00,,---,0.00,VWS V14.01,2013-01-16 07:26:00,
2013-01-16 01:28:00,29.9,28.9,30.09,North,359,1.0,2.0,96,0.00,,---,0.00,VWS V14.01,2013-01-16 07:28:00,
2013-01-16 01:29:00,29.9,28.9,30.09,North,359,1.0,2.0,96,0.00,,---,0.00,VWS V14.01,2013-01-16 07:29:00,
2013-01-16 01:30:00,29.9,28.9,30.10,North,1,0.0,2.0,96,0.00,,---,0.00,VWS V14.01,2013-01-16 07:30:00,
2013-01-16 01:40:00,29.9,28.9,30.10,North,356,1.0,2.0,96,0.00,,---,0.00,VWS V14.01,2013-01-16 07:40:00,
2013-01-16 01:45:00,29.8,28.8,30.10,NNW,340,0.0,2.0,96,0.00,,---,0.00,VWS V14.01,2013-01-16 07:45:00,
2013-01-16 01:46:00,29.8,28.8,30.10,NNW,344,1.0,2.0,96,0.00,,---,0.00,VWS V14.01,2013-01-16 07:46:00,
2013-01-16 01:50:00,29.8,28.8,30.11,NNW,330,0.0,1.0,96,0.00,,---,0.00,VWS V14.01,2013-01-16 07:50:00,
2013-01-16 01:51:00,29.8,28.8,30.11,NNW,329,0.0,1.0,96,0.00,,---,0.00,VWS V14.01,2013-01-16 07:51:00,
2013-01-16 01:55:00,29.8,28.8,30.11,North,11,0.0,2.0,96,0.00,,---,0.00,VWS V14.01,2013-01-16 07:55:00,
2013-01-16 01:56:00,29.8,28.8,30.12,North,3,0.0,2.0,96,0.00,,---,0.00,VWS V14.01,2013-01-16 07:56:00,
2013-01-16 02:00:00,29.8,28.8,30.11,NNE,29,1.0,3.0,96,0.00,,---,0.00,VWS V14.01,2013-01-16 08:00:00,
2013-01-16 02:01:00,29.7,28.7,30.11,North,8,0.0,1.0,96,0.00,,---,0.00,VWS V14.01,2013-01-16 08:01:00,
2013-01-16 02:05:00,29.7,28.7,30.12,NNE,31,1.0,1.0,96,0.00,,---,0.00,VWS V14.01,2013-01-16 08:05:00,
2013-01-16 02:06:00,29.7,28.7,30.12,NNE,31,0.0,1.0,96,0.00,,---,0.00,VWS V14.01,2013-01-16 08:06:00,
2013-01-16 02:10:00,29.6,28.6,30.12,North,7,1.0,2.0,96,0.00,,---,0.00,VWS V14.01,2013-01-16 08:10:00,
2013-01-16 02:11:00,29.6,28.6,30.12,NNW,332,2.0,2.0,96,0.00,,---,0.00,VWS V14.01,2013-01-16 08:11:00,
2013-01-16 02:15:00,29.5,28.5,30.11,North,358,0.0,3.0,96,0.00,,---,0.00,VWS V14.01,2013-01-16 08:15:00,
2013-01-16 02:16:00,29.5,28.5,30.11,North,358,0.0,3.0,96,0.00,,---,0.00,VWS V14.01,2013-01-16 08:16:00,
2013-01-16 02:21:00,29.5,28.5,30.13,North,352,0.0,0.0,96,0.00,,---,0.00,VWS V14.01,2013-01-16 08:21:00,
2013-01-16 02:26:00,29.5,28.5,30.13,NNW,333,0.0,1.0,96,0.00,,---,0.00,VWS V14.01,2013-01-16 08:26:00,
2013-01-16 02:31:00,29.5,28.5,30.13,NNE,18,2.0,2.0,96,0.00,,---,0.00,VWS V14.01,2013-01-16 08:31:00,
2013-01-16 02:36:00,29.4,28.4,30.12,North,349,1.0,2.0,96,0.00,,---,0.00,VWS V14.01,2013-01-16 08:36:00,
2013-01-16 02:41:00,29.4,28.4,30.10,NNW,332,1.0,3.0,96,0.00,,---,0.00,VWS V14.01,2013-01-16 08:41:00,
2013-01-16 02:46:00,29.4,28.4,30.09,NNE,17,2.0,2.0,96,0.00,,---,0.00,VWS V14.01,2013-01-16 08:46:00,
2013-01-16 02:51:00,29.3,28.3,30.08,North,352,0.0,2.0,96,0.00,,---,0.00,VWS V14.01,2013-01-16 08:51:00,
2013-01-16 02:56:00,29.3,28.3,30.08,NNW,335,0.0,2.0,96,0.00,,---,0.00,VWS V14.01,2013-01-16 08:56:00,
2013-01-16 02:57:00,29.3,28.3,30.09,NNW,335,0.0,2.0,96,0.00,,---,0.00,VWS V14.01,2013-01-16 08:57:00,
2013-01-16 03:01:00,29.3,28.3,30.09,North,10,0.0,1.0,96,0.00,,---,0.00,VWS V14.01,2013-01-16 09:01:00,
2013-01-16 03:02:00,29.3,28.3,30.09,North,356,1.0,1.0,96,0.00,,---,0.00,VWS V14.01,2013-01-16 09:02:00,
2013-01-16 03:06:00,29.3,28.3,30.09,North,1,0.0,2.0,96,0.00,,---,0.00,VWS V14.01,2013-01-16 09:06:00,
2013-01-16 03:07:00,29.3,28.3,30.09,North,1,1.0,2.0,96,0.00,,---,0.00,VWS V14.01,2013-01-16 09:07:00,
2013-01-16 03:11:00,29.3,28.3,30.09,NNW,337,0.0,2.0,96,0.00,,---,0.00,VWS V14.01,2013-01-16 09:11:00,
2013-01-16 03:12:00,29.3,28.3,30.08,NNW,337,0.0,2.0,96,0.00,,---,0.00,VWS V14.01,2013-01-16 09:12:00,
2013-01-16 03:17:00,29.3,28.3,30.08,North,350,1.0,1.0,96,0.00,,---,0.00,VWS V14.01,2013-01-16 09:17:00,
2013-01-16 03:22:00,29.3,28.3,30.07,ENE,63,1.0,1.0,96,0.00,,---,0.00,VWS V14.01,2013-01-16 09:22:00,
2013-01-16 03:27:00,29.3,28.3,30.07,ESE,114,1.0,3.0,96,0.00,,---,0.00,VWS V14.01,2013-01-16 09:27:00,
2013-01-16 03:32:00,29.3,28.3,30.07,NNE,14,0.0,0.0,96,0.00,,---,0.00,VWS V14.01,2013-01-16 09:32:00,
2013-01-16 03:34:00,29.4,28.4,30.06,NNE,17,0.0,0.0,96,0.00,,---,0.00,VWS V14.01,2013-01-16 09:34:00,
2013-01-16 03:37:00,29.4,28.4,30.06,North,8,0.0,1.0,96,0.00,,---,0.00,VWS V14.01,2013-01-16 09:37:00,
2013-01-16 03:39:00,29.3,28.3,30.06,North,350,1.0,1.0,96,0.00,,---,0.00,VWS V14.01,2013-01-16 09:39:00,
2013-01-16 03:42:00,29.3,28.3,30.06,North,3,1.0,2.0,96,0.00,,---,0.00,VWS V14.01,2013-01-16 09:42:00,
2013-01-16 03:45:00,29.4,28.4,30.07,NNW,336,0.0,2.0,96,0.00,,---,0.00,VWS V14.01,2013-01-16 09:45:00,
2013-01-16 03:47:00,29.4,28.4,30.07,NNW,337,0.0,0.0,96,0.00,,---,0.00,VWS V14.01,2013-01-16 09:47:00,
2013-01-16 03:50:00,29.4,28.4,30.08,North,6,0.0,1.0,96,0.00,,---,0.00,VWS V14.01,2013-01-16 09:50:00,
2013-01-16 03:52:00,29.4,28.4,30.09,NNW,330,0.0,1.0,96,0.00,,---,0.00,VWS V14.01,2013-01-16 09:52:00,
2013-01-16 03:55:00,29.4,28.4,30.10,North,352,0.0,1.0,96,0.00,,---,0.00,VWS V14.01,2013-01-16 09:55:00,
2013-01-16 03:57:00,29.4,28.4,30.10,West,279,0.0,1.0,96,0.00,,---,0.00,VWS V14.01,2013-01-16 09:57:00,
2013-01-16 03:58:00,29.5,28.5,30.10,West,278,0.0,1.0,96,0.00,,---,0.00,VWS V14.01,2013-01-16 09:58:00,
2013-01-16 04:00:00,29.5,28.5,30.10,West,278,0.0,1.0,96,0.00,,---,0.00,VWS V14.01,2013-01-16 10:00:00,
2013-01-16 04:02:00,29.5,28.5,30.10,North,350,0.0,1.0,96,0.00,,---,0.00,VWS V14.01,2013-01-16 10:02:00,
2013-01-16 04:03:00,29.5,28.5,30.10,North,351,0.0,1.0,96,0.00,,---,0.00,VWS V14.01,2013-01-16 10:03:00,
2013-01-16 04:05:00,29.5,28.5,30.10,North,351,0.0,1.0,96,0.00,,---,0.00,VWS V14.01,2013-01-16 10:05:00,
2013-01-16 04:07:00,29.6,28.6,30.10,North,349,0.0,1.0,96,0.00,,---,0.00,VWS V14.01,2013-01-16 10:07:00,
2013-01-16 04:08:00,29.6,28.6,30.09,North,349,0.0,1.0,96,0.00,,---,0.00,VWS V14.01,2013-01-16 10:08:00,
2013-01-16 04:10:00,29.6,28.6,30.10,North,349,0.0,1.0,96,0.00,,---,0.00,VWS V14.01,2013-01-16 10:10:00,
2013-01-16 04:12:00,29.6,28.6,30.10,North,349,0.0,1.0,96,0.00,,---,0.00,VWS V14.01,2013-01-16 10:12:00,
2013-01-16 04:13:00,29.6,28.6,30.10,North,349,0.0,1.0,96,0.00,,---,0.00,VWS V14.01,2013-01-16 10:13:00,
2013-01-16 04:15:00,29.6,28.6,30.11,North,349,0.0,1.0,96,0.00,,---,0.00,VWS V14.01,2013-01-16 10:15:00,
2013-01-16 04:17:00,29.6,28.6,30.11,North,349,0.0,0.0,96,0.00,,---,0.00,VWS V14.01,2013-01-16 10:17:00,
2013-01-16 04:18:00,29.7,28.7,30.11,North,349,0.0,0.0,96,0.00,,---,0.00,VWS V14.01,2013-01-16 10:18:00,
2013-01-16 04:20:00,29.7,28.7,30.11,North,349,0.0,0.0,96,0.00,,---,0.00,VWS V14.01,2013-01-16 10:20:00,
2013-01-16 04:23:00,29.8,28.8,30.10,North,349,0.0,0.0,96,0.00,,---,0.00,VWS V14.01,2013-01-16 10:23:00,
2013-01-16 04:25:00,29.8,28.8,30.10,North,349,0.0,0.0,96,0.00,,---,0.00,VWS V14.01,2013-01-16 10:25:00,
2013-01-16 04:28:00,29.8,28.8,30.10,North,349,0.0,0.0,96,0.00,,---,0.00,VWS V14.01,2013-01-16 10:28:00,
2013-01-16 04:31:00,29.8,28.8,30.10,North,354,0.0,1.0,96,0.00,,---,0.00,VWS V14.01,2013-01-16 10:31:00,
2013-01-16 04:33:00,29.8,28.8,30.12,North,354,0.0,0.0,96,0.00,,---,0.00,VWS V14.01,2013-01-16 10:33:00,
2013-01-16 04:36:00,29.8,28.8,30.12,NNW,329,0.0,0.0,96,0.00,,---,0.00,VWS V14.01,2013-01-16 10:36:00,
2013-01-16 04:52:00,29.8,28.8,30.12,NNW,330,0.0,0.0,96,0.00,,---,0.00,VWS V14.01,2013-01-16 10:52:00,
2013-01-16 04:53:00,29.9,28.9,30.12,NNW,329,0.0,0.0,96,0.00,,---,0.00,VWS V14.01,2013-01-16 10:53:00,
2013-01-16 04:57:00,29.9,28.9,30.12,NNW,330,0.0,0.0,96,0.00,,---,0.00,VWS V14.01,2013-01-16 10:57:00,
2013-01-16 04:58:00,29.9,28.9,30.12,NNW,329,0.0,0.0,96,0.00,,---,0.00,VWS V14.01,2013-01-16 10:58:00,
2013-01-16 05:02:00,29.9,28.9,30.12,NNW,330,0.0,0.0,96,0.00,,---,0.00,VWS V14.01,2013-01-16 11:02:00,
2013-01-16 05:03:00,29.9,28.9,30.11,NNW,330,0.0,0.0,96,0.00,,---,0.00,VWS V14.01,2013-01-16 11:03:00,
2013-01-16 05:08:00,30.0,29.0,30.11,NNW,330,0.0,0.0,96,0.00,,---,0.00,VWS V14.01,2013-01-16 11:08:00,
2013-01-16 05:13:00,30.0,29.0,30.11,NNW,331,0.0,0.0,96,0.00,,---,0.00,VWS V14.01,2013-01-16 11:13:00,
2013-01-16 05:18:00,30.0,29.0,30.10,NNW,330,0.0,0.0,96,0.00,,---,0.00,VWS V14.01,2013-01-16 11:18:00,
2013-01-16 05:23:00,30.0,29.0,30.09,NNW,336,1.0,2.0,96,0.00,,---,0.00,VWS V14.01,2013-01-16 11:23:00,
2013-01-16 05:28:00,29.9,28.9,30.11,North,356,0.0,2.0,96,0.00,,---,0.00,VWS V14.01,2013-01-16 11:28:00,
2013-01-16 05:29:00,29.9,28.9,30.11,NNE,25,0.0,2.0,96,0.00,,---,0.00,VWS V14.01,2013-01-16 11:29:00,
2013-01-16 05:33:00,29.9,28.9,30.12,North,8,0.0,0.0,96,0.00,,---,0.00,VWS V14.01,2013-01-16 11:33:00,
2013-01-16 05:34:00,29.9,28.9,30.12,North,8,0.0,0.0,96,0.00,,---,0.00,VWS V14.01,2013-01-16 11:34:00,
2013-01-16 05:38:00,29.8,28.8,30.12,NNE,18,0.0,1.0,96,0.00,,---,0.00,VWS V14.01,2013-01-16 11:38:00,
2013-01-16 05:39:00,29.8,28.8,30.12,North,352,0.0,1.0,96,0.00,,---,0.00,VWS V14.01,2013-01-16 11:39:00,
2013-01-16 05:43:00,29.9,28.9,30.12,NNW,345,0.0,1.0,96,0.00,,---,0.00,VWS V14.01,2013-01-16 11:43:00,
2013-01-16 05:44:00,29.9,28.9,30.12,NNW,344,0.0,1.0,96,0.00,,---,0.00,VWS V14.01,2013-01-16 11:44:00,
2013-01-16 05:48:00,29.9,28.9,30.14,North,7,0.0,0.0,96,0.00,,---,0.00,VWS V14.01,2013-01-16 11:48:00,
2013-01-16 05:49:00,29.9,28.9,30.14,North,7,0.0,0.0,96,0.00,,---,0.00,VWS V14.01,2013-01-16 11:49:00,
2013-01-16 05:53:00,29.9,28.9,30.13,NW,325,0.0,0.0,96,0.00,,---,0.00,VWS V14.01,2013-01-16 11:53:00,
2013-01-16 05:54:00,29.9,28.9,30.13,NW,323,0.0,0.0,96,0.00,,---,0.00,VWS V14.01,2013-01-16 11:54:00,
2013-01-16 05:58:00,29.9,28.9,30.14,NW,325,0.0,0.0,96,0.00,,---,0.00,VWS V14.01,2013-01-16 11:58:00,
2013-01-16 05:59:00,29.9,28.9,30.14,NW,325,0.0,0.0,96,0.00,,---,0.00,VWS V14.01,2013-01-16 11:59:00,
2013-01-16 06:00:00,29.9,28.9,30.14,NW,325,0.0,0.0,96,0.00,,---,0.00,VWS V14.01,2013-01-16 12:00:00,
2013-01-16 06:03:00,29.9,28.9,30.13,NNW,328,1.0,1.0,96,0.00,,---,0.00,VWS V14.01,2013-01-16 12:03:00,
2013-01-16 06:04:00,29.9,28.9,30.13,NNW,328,0.0,1.0,96,0.00,,---,0.00,VWS V14.01,2013-01-16 12:04:00,
2013-01-16 06:05:00,29.9,28.9,30.13,NNW,328,0.0,1.0,96,0.00,,---,0.00,VWS V14.01,2013-01-16 12:05:00,
2013-01-16 06:08:00,29.9,28.9,30.14,WNW,285,0.0,1.0,96,0.00,,---,0.00,VWS V14.01,2013-01-16 12:08:00,
2013-01-16 06:09:00,29.9,28.9,30.14,WNW,285,0.0,1.0,96,0.00,,---,0.00,VWS V14.01,2013-01-16 12:09:00,
2013-01-16 06:10:00,29.9,28.9,30.14,WNW,287,0.0,1.0,96,0.00,,---,0.00,VWS V14.01,2013-01-16 12:10:00,
2013-01-16 06:14:00,29.8,28.8,30.14,North,353,0.0,1.0,96,0.00,,---,0.00,VWS V14.01,2013-01-16 12:14:00,
2013-01-16 06:15:00,29.9,28.9,30.14,North,353,0.0,1.0,96,0.00,,---,0.00,VWS V14.01,2013-01-16 12:15:00,
2013-01-16 06:19:00,29.9,28.9,30.16,NW,318,0.0,0.0,96,0.00,,---,0.00,VWS V14.01,2013-01-16 12:19:00,
2013-01-16 06:20:00,29.9,28.9,30.16,NW,318,0.0,0.0,96,0.00,,---,0.00,VWS V14.01,2013-01-16 12:20:00,
2013-01-16 06:24:00,29.9,28.9,30.16,NW,318,0.0,1.0,96,0.00,,---,0.00,VWS V14.01,2013-01-16 12:24:00,
2013-01-16 06:25:00,29.9,28.9,30.16,NW,318,1.0,1.0,96,0.00,,---,0.00,VWS V14.01,2013-01-16 12:25:00,
2013-01-16 06:29:00,29.9,28.9,30.16,NW,322,0.0,1.0,96,0.00,,---,0.00,VWS V14.01,2013-01-16 12:29:00,
2013-01-16 06:30:00,29.9,28.9,30.16,NW,323,0.0,1.0,96,0.00,,---,0.00,VWS V14.01,2013-01-16 12:30:00,
2013-01-16 06:34:00,29.8,28.8,30.15,North,353,0.0,1.0,96,0.00,,---,0.00,VWS V14.01,2013-01-16 12:34:00,
2013-01-16 06:35:00,29.8,28.8,30.15,North,3,0.0,1.0,96,0.00,,---,0.00,VWS V14.01,2013-01-16 12:35:00,
2013-01-16 06:39:00,29.9,28.9,30.16,North,360,0.0,1.0,96,0.00,,---,0.00,VWS V14.01,2013-01-16 12:39:00,
2013-01-16 06:40:00,29.9,28.9,30.16,North,360,0.0,1.0,96,0.00,,---,0.00,VWS V14.01,2013-01-16 12:40:00,
2013-01-16 06:44:00,29.9,28.9,30.16,North,360,0.0,1.0,96,0.00,,---,0.00,VWS V14.01,2013-01-16 12:44:00,
2013-01-16 06:45:00,29.9,28.9,30.16,North,360,0.0,1.0,96,0.00,,---,0.00,VWS V14.01,2013-01-16 12:45:00,
2013-01-16 06:49:00,29.8,28.8,30.16,NNW,328,0.0,1.0,96,0.00,,---,0.00,VWS V14.01,2013-01-16 12:49:00,
2013-01-16 06:50:00,29.8,28.8,30.16,NNW,328,0.0,1.0,96,0.00,,---,0.00,VWS V14.01,2013-01-16 12:50:00,
2013-01-16 06:55:00,29.8,28.8,30.16,NNW,328,0.0,1.0,96,0.00,,---,0.00,VWS V14.01,2013-01-16 12:55:00,
2013-01-16 06:56:00,29.8,28.8,30.16,NNW,328,0.0,1.0,96,0.00,,---,0.00,VWS V14.01,2013-01-16 12:56:00,
2013-01-16 07:00:00,29.9,28.9,30.16,NNW,328,0.0,1.0,96,0.00,,---,0.00,VWS V14.01,2013-01-16 13:00:00,
2013-01-16 07:01:00,29.8,28.8,30.16,NNW,328,0.0,0.0,96,0.00,,---,0.00,VWS V14.01,2013-01-16 13:01:00,
2013-01-16 07:05:00,29.8,28.8,30.16,NNW,329,0.0,1.0,96,0.00,,---,0.00,VWS V14.01,2013-01-16 13:05:00,
2013-01-16 07:06:00,29.8,28.8,30.16,NNW,330,0.0,1.0,96,0.00,,---,0.00,VWS V14.01,2013-01-16 13:06:00,
2013-01-16 07:10:00,29.8,28.8,30.15,NNW,329,0.0,1.0,96,0.00,,---,0.00,VWS V14.01,2013-01-16 13:10:00,
2013-01-16 07:21:00,29.8,28.8,30.15,NNW,330,1.0,1.0,96,0.00,,---,0.00,VWS V14.01,2013-01-16 13:21:00,
2013-01-16 07:26:00,29.8,28.8,30.14,NNW,340,0.0,1.0,96,0.00,,---,0.00,VWS V14.01,2013-01-16 13:26:00,
2013-01-16 07:31:00,29.7,28.7,30.13,NNE,30,2.0,2.0,96,0.00,,---,0.00,VWS V14.01,2013-01-16 13:31:00,
2013-01-16 07:36:00,29.6,28.4,30.11,NW,315,0.0,3.0,95,0.00,,---,0.00,VWS V14.01,2013-01-16 13:36:00,
2013-01-16 07:37:00,29.5,28.2,30.11,NE,53,1.0,3.0,95,0.00,,---,0.00,VWS V14.01,2013-01-16 13:37:00,
2013-01-16 07:41:00,29.4,28.1,30.10,NNW,344,0.0,3.0,95,0.00,,---,0.00,VWS V14.01,2013-01-16 13:41:00,
2013-01-16 07:42:00,29.4,28.1,30.10,NNW,345,0.0,3.0,95,0.00,,---,0.00,VWS V14.01,2013-01-16 13:42:00,
2013-01-16 07:46:00,29.4,28.1,30.12,NNW,345,2.0,2.0,95,0.00,,---,0.00,VWS V14.01,2013-01-16 13:46:00,
2013-01-16 07:47:00,29.4,28.1,30.12,NNW,343,0.0,2.0,95,0.00,,---,0.00,VWS V14.01,2013-01-16 13:47:00,
2013-01-16 07:51:00,29.4,28.1,30.13,NNE,30,1.0,3.0,95,0.00,,---,0.00,VWS V14.01,2013-01-16 13:51:00,
2013-01-16 07:52:00,29.4,28.1,30.13,North,353,0.0,3.0,95,0.00,,---,0.00,VWS V14.01,2013-01-16 13:52:00,
2013-01-16 07:56:00,29.5,28.2,30.15,WNW,297,0.0,3.0,95,0.00,,---,0.00,VWS V14.01,2013-01-16 13:56:00,
2013-01-16 07:57:00,29.5,28.2,30.15,WNW,297,0.0,3.0,95,0.00,,---,0.00,VWS V14.01,2013-01-16 13:57:00,
2013-01-16 08:01:00,29.6,28.4,30.16,WNW,297,0.0,1.0,95,0.00,,---,0.00,VWS V14.01,2013-01-16 14:01:00,
2013-01-16 08:02:00,29.6,28.4,30.16,WNW,297,0.0,1.0,95,0.00,,---,0.00,VWS V14.01,2013-01-16 14:02:00,
2013-01-16 08:06:00,29.7,28.5,30.16,WNW,297,0.0,1.0,95,0.00,,---,0.00,VWS V14.01,2013-01-16 14:06:00,
2013-01-16 08:07:00,29.7,28.5,30.16,WNW,297,0.0,1.0,95,0.00,,---,0.00,VWS V14.01,2013-01-16 14:07:00,
2013-01-16 08:11:00,29.8,28.5,30.17,WNW,297,0.0,1.0,95,0.00,,---,0.00,VWS V14.01,2013-01-16 14:11:00,
2013-01-16 08:12:00,29.8,28.5,30.17,WNW,297,0.0,1.0,95,0.00,,---,0.00,VWS V14.01,2013-01-16 14:12:00,
2013-01-16 08:16:00,29.9,28.6,30.18,WNW,297,0.0,0.0,95,0.00,,---,0.00,VWS V14.01,2013-01-16 14:16:00,
2013-01-16 08:17:00,29.9,28.6,30.18,WNW,297,0.0,0.0,95,0.00,,---,0.00,VWS V14.01,2013-01-16 14:17:00,
2013-01-16 08:21:00,29.9,28.6,30.18,NNE,24,0.0,0.0,95,0.00,,---,0.00,VWS V14.01,2013-01-16 14:21:00,
2013-01-16 08:22:00,30.0,28.7,30.18,NNE,13,1.0,1.0,95,0.00,,---,0.00,VWS V14.01,2013-01-16 14:22:00,
2013-01-16 08:26:00,29.8,28.5,30.18,North,6,0.0,2.0,95,0.00,,---,0.00,VWS V14.01,2013-01-16 14:26:00,
2013-01-16 08:27:00,29.8,28.5,30.18,North,6,0.0,2.0,95,0.00,,---,0.00,VWS V14.01,2013-01-16 14:27:00,
2013-01-16 08:31:00,30.0,28.7,30.18,NNW,346,0.0,0.0,95,0.00,,---,0.00,VWS V14.01,2013-01-16 14:31:00,
2013-01-16 08:32:00,30.0,28.7,30.19,NNW,346,0.0,0.0,95,0.00,,---,0.00,VWS V14.01,2013-01-16 14:32:00,
2013-01-16 08:37:00,30.1,28.8,30.19,NNW,345,0.0,0.0,95,0.00,,---,0.00,VWS V14.01,2013-01-16 14:37:00,
2013-01-16 08:42:00,30.1,28.8,30.19,NNW,344,0.0,0.0,95,0.00,,---,0.00,VWS V14.01,2013-01-16 14:42:00,
2013-01-16 08:47:00,30.2,28.9,30.17,NNW,337,0.0,0.0,95,0.00,,---,0.00,VWS V14.01,2013-01-16 14:47:00,
2013-01-16 08:52:00,30.1,28.8,30.17,North,350,1.0,3.0,95,0.00,,---,0.00,VWS V14.01,2013-01-16 14:52:00,
2013-01-16 08:53:00,30.1,28.6,30.17,North,8,0.0,3.0,94,0.00,,---,0.00,VWS V14.01,2013-01-16 14:53:00,
2013-01-16 08:57:00,30.0,28.5,30.17,NE,39,1.0,3.0,94,0.00,,---,0.00,VWS V14.01,2013-01-16 14:57:00,
2013-01-16 08:58:00,30.0,28.5,30.17,NNE,18,0.0,3.0,94,0.00,,---,0.00,VWS V14.01,2013-01-16 14:58:00,
2013-01-16 09:02:00,30.1,28.6,30.18,NNW,344,0.0,0.0,94,0.00,,---,0.00,VWS V14.01,2013-01-16 15:02:00,
2013-01-16 09:03:00,30.1,28.6,30.18,NNW,345,0.0,0.0,94,0.00,,---,0.00,VWS V14.01,2013-01-16 15:03:00,
2013-01-16 09:07:00,30.2,28.7,30.17,NNW,343,1.0,1.0,94,0.00,,---,0.00,VWS V14.01,2013-01-16 15:07:00,
2013-01-16 09:08:00,30.3,28.8,30.17,NNW,344,1.0,1.0,94,0.00,,---,0.00,VWS V14.01,2013-01-16 15:08:00,
2013-01-16 09:12:00,30.3,28.8,30.17,North,359,1.0,1.0,94,0.00,,---,0.00,VWS V14.01,2013-01-16 15:12:00,
2013-01-16 09:13:00,30.3,28.8,30.17,NNE,17,0.0,2.0,94,0.00,,---,0.00,VWS V14.01,2013-01-16 15:13:00,
2013-01-16 09:17:00,30.4,28.9,30.17,North,11,0.0,0.0,94,0.00,,---,0.00,VWS V14.01,2013-01-16 15:17:00,
2013-01-16 09:18:00,30.5,29.0,30.17,NNE,13,0.0,0.0,94,0.00,,---,0.00,VWS V14.01,2013-01-16 15:18:00,
2013-01-16 09:22:00,30.7,29.2,30.17,North,10,2.0,2.0,94,0.00,,---,0.00,VWS V14.01,2013-01-16 15:22:00,
2013-01-16 09:23:00,30.6,29.1,30.17,North,6,1.0,2.0,94,0.00,,---,0.00,VWS V14.01,2013-01-16 15:23:00,
2013-01-16 09:27:00,30.5,29.0,30.17,NE,38,1.0,2.0,94,0.00,,---,0.00,VWS V14.01,2013-01-16 15:27:00,
2013-01-16 09:28:00,30.5,29.0,30.18,NE,37,0.0,2.0,94,0.00,,---,0.00,VWS V14.01,2013-01-16 15:28:00,
2013-01-16 09:32:00,30.5,28.7,30.17,NNW,347,0.0,1.0,93,0.00,,---,0.00,VWS V14.01,2013-01-16 15:32:00,
2013-01-16 09:33:00,30.5,28.7,30.17,NNW,347,0.0,1.0,93,0.00,,---,0.00,VWS V14.01,2013-01-16 15:33:00,
2013-01-16 09:37:00,30.4,28.6,30.17,North,350,1.0,2.0,93,0.00,,---,0.00,VWS V14.01,2013-01-16 15:37:00,
2013-01-16 09:38:00,30.4,28.6,30.17,NE,39,1.0,2.0,93,0.00,,---,0.00,VWS V14.01,2013-01-16 15:38:00,
2013-01-16 09:42:00,30.4,28.6,30.19,NNW,344,0.0,2.0,93,0.00,,---,0.00,VWS V14.01,2013-01-16 15:42:00,
2013-01-16 09:43:00,30.5,28.7,30.19,NNW,344,0.0,2.0,93,0.00,,---,0.00,VWS V14.01,2013-01-16 15:43:00,
2013-01-16 09:44:00,30.5,28.7,30.19,NNW,344,0.0,2.0,93,0.00,,---,0.00,VWS V14.01,2013-01-16 15:44:00,
2013-01-16 09:47:00,30.7,29.2,30.20,NNW,344,0.0,0.0,94,0.00,,---,0.00,VWS V14.01,2013-01-16 15:47:00,
2013-01-16 09:48:00,30.7,29.2,30.20,NNW,343,0.0,0.0,94,0.00,,---,0.00,VWS V14.01,2013-01-16 15:48:00,
2013-01-16 09:49:00,30.8,29.3,30.20,NNW,343,0.0,0.0,94,0.00,,---,0.00,VWS V14.01,2013-01-16 15:49:00,
2013-01-16 09:52:00,30.8,29.0,30.19,NNW,343,0.0,1.0,93,0.00,,---,0.00,VWS V14.01,2013-01-16 15:52:00,
2013-01-16 09:53:00,30.8,29.0,30.19,NNW,343,0.0,1.0,93,0.00,,---,0.00,VWS V14.01,2013-01-16 15:53:00,
2013-01-16 09:54:00,30.8,29.0,30.18,NNE,22,0.0,1.0,93,0.00,,---,0.00,VWS V14.01,2013-01-16 15:54:00,
2013-01-16 09:57:00,30.8,29.0,30.18,NNE,13,0.0,1.0,93,0.00,,---,0.00,VWS V14.01,2013-01-16 15:57:00,
2013-01-16 09:58:00,30.8,29.0,30.17,North,11,1.0,1.0,93,0.00,,---,0.00,VWS V14.01,2013-01-16 15:58:00,
2013-01-16 09:59:00,30.8,29.0,30.17,North,11,0.0,1.0,93,0.00,,---,0.00,VWS V14.01,2013-01-16 15:59:00,
2013-01-16 10:03:00,30.9,29.1,30.17,North,4,0.0,1.0,93,0.00,,---,0.00,VWS V14.01,2013-01-16 16:03:00,
2013-01-16 10:04:00,30.9,29.1,30.17,North,350,1.0,1.0,93,0.00,,---,0.00,VWS V14.01,2013-01-16 16:04:00,
2013-01-16 10:08:00,31.0,29.2,30.17,North,350,0.0,1.0,93,0.00,,---,0.00,VWS V14.01,2013-01-16 16:08:00,
2013-01-16 10:10:00,31.1,29.6,30.17,North,350,0.0,1.0,94,0.00,,---,0.00,VWS V14.01,2013-01-16 16:10:00,
2013-01-16 10:13:00,31.1,29.3,30.17,NNW,339,2.0,2.0,93,0.00,,---,0.00,VWS V14.01,2013-01-16 16:13:00,
2013-01-16 10:15:00,31.0,29.2,30.17,North,6,0.0,2.0,93,0.00,,---,0.00,VWS V14.01,2013-01-16 16:15:00,
2013-01-16 10:18:00,30.9,29.1,30.16,NNE,21,0.0,2.0,93,0.00,,---,0.00,VWS V14.01,2013-01-16 16:18:00,
2013-01-16 10:19:00,31.0,29.0,30.17,East,79,3.0,3.0,93,0.00,,,0.00,weatherlink.com 1.10,2013-01-16 16:19:00,
2013-01-16 10:20:00,31.0,29.2,30.17,NNE,13,1.0,3.0,93,0.00,,---,0.00,VWS V14.01,2013-01-16 16:20:00,
2013-01-16 10:23:00,30.8,29.0,30.16,ENE,71,1.0,3.0,93,0.00,,---,0.00,VWS V14.01,2013-01-16 16:23:00,
2013-01-16 10:24:00,30.8,29.0,30.16,ENE,72,1.0,3.0,93,0.00,,---,0.00,VWS V14.01,2013-01-16 16:24:00,
2013-01-16 10:25:00,30.8,29.0,30.15,North,8,1.0,3.0,93,0.00,,---,0.00,VWS V14.01,2013-01-16 16:25:00,
2013-01-16 10:28:00,30.8,29.0,30.15,North,357,0.0,3.0,93,0.00,,---,0.00,VWS V14.01,2013-01-16 16:28:00,
2013-01-16 10:29:00,30.8,29.0,30.15,North,358,0.0,3.0,93,0.00,,---,0.00,VWS V14.01,2013-01-16 16:29:00,
2013-01-16 10:30:00,30.8,29.0,30.13,ENE,66,2.0,3.0,93,0.00,,---,0.00,VWS V14.01,2013-01-16 16:30:00,
2013-01-16 10:33:00,30.9,29.1,30.12,ENE,70,0.0,3.0,93,0.00,,---,0.00,VWS V14.01,2013-01-16 16:33:00,
2013-01-16 10:34:00,30.9,29.1,30.12,ENE,73,1.0,3.0,93,0.00,,---,0.00,VWS V14.01,2013-01-16 16:34:00,
2013-01-16 10:35:00,30.9,29.1,30.12,North,3,1.0,3.0,93,0.00,,---,0.00,VWS V14.01,2013-01-16 16:35:00,
2013-01-16 10:38:00,30.8,29.0,30.13,ENE,65,0.0,4.0,93,0.00,,---,0.00,VWS V14.01,2013-01-16 16:38:00,
2013-01-16 10:39:00,30.8,29.0,30.13,North,1,0.0,4.0,93,0.00,,---,0.00,VWS V14.01,2013-01-16 16:39:00,
2013-01-16 10:40:00,30.9,29.1,30.13,North,1,0.0,4.0,93,0.00,,---,0.00,VWS V14.01,2013-01-16 16:40:00,
2013-01-16 10:43:00,30.9,29.1,30.13,North,356,1.0,4.0,93,0.00,,---,0.00,VWS V14.01,2013-01-16 16:43:00,
2013-01-16 10:44:00,30.9,29.1,30.13,North,4,0.0,4.0,93,0.00,,---,0.00,VWS V14.01,2013-01-16 16:44:00,
2013-01-16 10:45:00,30.9,29.1,30.13,North,4,0.0,4.0,93,0.00,,---,0.00,VWS V14.01,2013-01-16 16:45:00,
2013-01-16 10:48:00,30.9,29.1,30.14,North,359,1.0,2.0,93,0.00,,---,0.00,VWS V14.01,2013-01-16 16:48:00,
2013-01-16 10:49:00,30.9,29.1,30.14,North,359,0.0,2.0,93,0.00,,---,0.00,VWS V14.01,2013-01-16 16:49:00,
2013-01-16 10:50:00,30.9,29.1,30.14,North,359,0.0,2.0,93,0.00,,---,0.00,VWS V14.01,2013-01-16 16:50:00,
2013-01-16 10:54:00,31.1,29.6,30.16,North,356,0.0,2.0,94,0.00,,---,0.00,VWS V14.01,2013-01-16 16:54:00,
2013-01-16 10:55:00,31.2,29.7,30.16,North,356,0.0,2.0,94,0.00,,---,0.00,VWS V14.01,2013-01-16 16:55:00,
2013-01-16 10:59:00,31.2,29.7,30.16,North,356,0.0,2.0,94,0.00,,---,0.00,VWS V14.01,2013-01-16 16:59:00,
2013-01-16 11:00:00,31.2,29.7,30.16,North,356,0.0,2.0,94,0.00,,---,0.00,VWS V14.01,2013-01-16 17:00:00,
2013-01-16 11:04:00,31.2,29.7,30.15,North,356,0.0,0.0,94,0.00,,---,0.00,VWS V14.01,2013-01-16 17:04:00,
2013-01-16 11:05:00,31.2,29.7,30.15,North,356,0.0,0.0,94,0.00,,---,0.00,VWS V14.01,2013-01-16 17:05:00,
2013-01-16 11:09:00,31.2,29.7,30.15,North,356,0.0,1.0,94,0.00,,---,0.00,VWS V14.01,2013-01-16 17:09:00,
2013-01-16 11:10:00,31.3,29.8,30.15,North,356,0.0,1.0,94,0.00,,---,0.00,VWS V14.01,2013-01-16 17:10:00,
2013-01-16 11:14:00,31.3,29.8,30.14,North,356,0.0,1.0,94,0.00,,---,0.00,VWS V14.01,2013-01-16 17:14:00,
2013-01-16 11:15:00,31.3,29.8,30.14,North,356,0.0,1.0,94,0.00,,---,0.00,VWS V14.01,2013-01-16 17:15:00,
2013-01-16 11:16:00,31.4,29.9,30.14,North,356,0.0,1.0,94,0.00,,---,0.00,VWS V14.01,2013-01-16 17:16:00,
2013-01-16 11:19:00,31.4,29.9,30.15,North,352,0.0,1.0,94,0.00,,---,0.00,VWS V14.01,2013-01-16 17:19:00,
2013-01-16 11:20:00,31.4,29.9,30.15,NNW,339,0.0,1.0,94,0.00,,---,0.00,VWS V14.01,2013-01-16 17:20:00,
2013-01-16 11:21:00,31.4,29.9,30.15,NNW,337,0.0,1.0,94,0.00,,---,0.00,VWS V14.01,2013-01-16 17:21:00,
2013-01-16 11:25:00,31.5,30.0,30.15,NNW,337,0.0,1.0,94,0.00,,---,0.00,VWS V14.01,2013-01-16 17:25:00,
2013-01-16 11:26:00,31.5,30.0,30.14,NNW,339,0.0,1.0,94,0.00,,---,0.00,VWS V14.01,2013-01-16 17:26:00,
2013-01-16 11:30:00,31.5,30.0,30.14,NNW,340,0.0,1.0,94,0.00,,---,0.00,VWS V14.01,2013-01-16 17:30:00,
2013-01-16 11:31:00,31.5,29.7,30.14,NNW,340,0.0,1.0,93,0.00,,---,0.00,VWS V14.01,2013-01-16 17:31:00,
2013-01-16 11:35:00,31.4,29.6,30.14,NNW,340,0.0,0.0,93,0.00,,---,0.00,VWS V14.01,2013-01-16 17:35:00,
2013-01-16 11:36:00,31.4,29.6,30.14,NNW,340,0.0,0.0,93,0.00,,---,0.00,VWS V14.01,2013-01-16 17:36:00,
2013-01-16 11:40:00,31.4,29.6,30.14,North,357,0.0,1.0,93,0.00,,---,0.00,VWS V14.01,2013-01-16 17:40:00,
2013-01-16 11:41:00,31.4,29.6,30.14,North,357,0.0,1.0,93,0.00,,---,0.00,VWS V14.01,2013-01-16 17:41:00,
2013-01-16 11:45:00,31.4,29.9,30.15,North,357,0.0,1.0,94,0.00,,---,0.00,VWS V14.01,2013-01-16 17:45:00,
2013-01-16 11:46:00,31.4,29.9,30.14,North,357,0.0,0.0,94,0.00,,---,0.00,VWS V14.01,2013-01-16 17:46:00,
2013-01-16 11:50:00,31.6,30.1,30.15,North,356,0.0,0.0,94,0.00,,---,0.00,VWS V14.01,2013-01-16 17:50:00,
2013-01-16 11:51:00,31.6,30.1,30.15,North,358,0.0,0.0,94,0.00,,---,0.00,VWS V14.01,2013-01-16 17:51:00,
2013-01-16 11:55:00,31.6,30.1,30.14,North,356,0.0,0.0,94,0.00,,---,0.00,VWS V14.01,2013-01-16 17:55:00,
2013-01-16 11:56:00,31.6,30.1,30.14,North,357,0.0,0.0,94,0.00,,---,0.00,VWS V14.01,2013-01-16 17:56:00,
2013-01-16 12:00:00,31.6,29.8,30.13,North,356,0.0,0.0,93,0.00,,---,0.00,VWS V14.01,2013-01-16 18:00:00,
2013-01-16 12:01:00,31.6,29.8,30.14,North,356,0.0,0.0,93,0.00,,---,0.00,VWS V14.01,2013-01-16 18:01:00,
2013-01-16 12:05:00,31.9,30.4,30.15,North,355,0.0,0.0,94,0.00,,---,0.00,VWS V14.01,2013-01-16 18:05:00,
2013-01-16 12:06:00,31.9,30.4,30.15,North,355,0.0,0.0,94,0.00,,---,0.00,VWS V14.01,2013-01-16 18:06:00,
2013-01-16 12:10:00,32.1,30.6,30.15,North,354,0.0,0.0,94,0.00,,---,0.00,VWS V14.01,2013-01-16 18:10:00,
2013-01-16 12:11:00,32.1,30.6,30.15,North,354,0.0,0.0,94,0.00,,---,0.00,VWS V14.01,2013-01-16 18:11:00,
2013-01-16 12:16:00,32.3,30.8,30.15,North,351,0.0,0.0,94,0.00,,---,0.00,VWS V14.01,2013-01-16 18:16:00,
2013-01-16 12:17:00,32.3,30.8,30.15,North,350,0.0,0.0,94,0.00,,---,0.00,VWS V14.01,2013-01-16 18:17:00,
2013-01-16 12:21:00,32.4,30.9,30.15,North,349,0.0,0.0,94,0.00,,---,0.00,VWS V14.01,2013-01-16 18:21:00,
2013-01-16 12:22:00,32.4,30.9,30.14,North,349,0.0,0.0,94,0.00,,---,0.00,VWS V14.01,2013-01-16 18:22:00,
2013-01-16 12:25:00,32.3,30.5,30.14,North,349,0.0,0.0,93,0.00,,---,0.00,VWS V14.01,2013-01-16 18:25:00,
2013-01-16 12:26:00,32.3,30.5,30.13,North,349,0.0,0.0,93,0.00,,---,0.00,VWS V14.01,2013-01-16 18:26:00,
2013-01-16 12:27:00,32.4,30.6,30.13,North,349,0.0,0.0,93,0.00,,---,0.00,VWS V14.01,2013-01-16 18:27:00,
2013-01-16 12:31:00,32.4,30.6,30.13,North,349,0.0,0.0,93,0.00,,---,0.00,VWS V14.01,2013-01-16 18:31:00,
2013-01-16 12:32:00,32.3,30.5,30.13,North,349,0.0,1.0,93,0.00,,---,0.00,VWS V14.01,2013-01-16 18:32:00,
2013-01-16 12:36:00,32.2,30.4,30.12,North,349,0.0,1.0,93,0.00,,---,0.00,VWS V14.01,2013-01-16 18:36:00,
2013-01-16 12:37:00,32.2,30.4,30.12,North,349,0.0,1.0,93,0.00,,---,0.00,VWS V14.01,2013-01-16 18:37:00,
2013-01-16 13:10:00,32.1,30.0,30.13,North,354,0.0,0.0,93,0.00,,,0.00,weatherlink.com 1.10,2013-01-16 19:10:00,
2013-01-16 13:15:00,32.2,30.4,30.13,North,354,0.0,1.0,93,0.00,,---,0.00,VWS V14.01,2013-01-16 19:15:00,
2013-01-16 13:20:00,32.2,30.4,30.12,North,354,0.0,0.0,93,0.00,,---,0.00,VWS V14.01,2013-01-16 19:20:00,
2013-01-16 13:25:00,32.2,30.4,30.12,NNW,332,0.0,0.0,93,0.00,,---,0.00,VWS V14.01,2013-01-16 19:25:00,
2013-01-16 13:30:00,32.3,30.5,30.13,NNW,332,0.0,0.0,93,0.00,,---,0.00,VWS V14.01,2013-01-16 19:30:00,
2013-01-16 13:35:00,32.3,30.5,30.14,NNW,332,0.0,0.0,93,0.00,,---,0.00,VWS V14.01,2013-01-16 19:35:00,
2013-01-16 13:36:00,32.3,30.5,30.14,NNW,332,0.0,0.0,93,0.00,,---,0.00,VWS V14.01,2013-01-16 19:36:00,
2013-01-16 13:40:00,32.4,30.6,30.14,NNW,332,0.0,0.0,93,0.00,,---,0.00,VWS V14.01,2013-01-16 19:40:00,
2013-01-16 13:41:00,32.4,30.6,30.14,NNW,332,0.0,0.0,93,0.00,,---,0.00,VWS V14.01,2013-01-16 19:41:00,
2013-01-16 13:45:00,32.2,30.4,30.13,NNW,332,0.0,0.0,93,0.00,,---,0.00,VWS V14.01,2013-01-16 19:45:00,
2013-01-16 13:46:00,32.2,30.4,30.13,NNW,333,0.0,0.0,93,0.00,,---,0.00,VWS V14.01,2013-01-16 19:46:00,
2013-01-16 13:51:00,32.2,30.4,30.12,NNW,337,0.0,0.0,93,0.00,,---,0.00,VWS V14.01,2013-01-16 19:51:00,
2013-01-16 13:56:00,32.2,30.4,30.13,NW,318,0.0,0.0,93,0.00,,---,0.00,VWS V14.01,2013-01-16 19:56:00,
2013-01-16 14:01:00,32.3,30.8,30.12,NW,325,0.0,0.0,94,0.00,,---,0.00,VWS V14.01,2013-01-16 20:01:00,
2013-01-16 14:06:00,32.4,30.9,30.12,NW,325,0.0,0.0,94,0.00,,---,0.00,VWS V14.01,2013-01-16 20:06:00,
2013-01-16 14:11:00,32.4,30.9,30.11,NW,325,0.0,0.0,94,0.00,,---,0.00,VWS V14.01,2013-01-16 20:11:00,
2013-01-16 14:16:00,32.5,31.0,30.12,NW,325,0.0,0.0,94,0.00,,---,0.00,VWS V14.01,2013-01-16 20:16:00,
2013-01-16 14:21:00,32.6,31.1,30.11,NW,325,0.0,0.0,94,0.00,,---,0.00,VWS V14.01,2013-01-16 20:21:00,
2013-01-16 14:26:00,32.5,31.0,30.11,NNW,347,0.0,0.0,94,0.00,,---,0.00,VWS V14.01,2013-01-16 20:26:00,
2013-01-16 14:31:00,32.4,30.9,30.11,NNW,346,0.0,0.0,94,0.00,,---,0.00,VWS V14.01,2013-01-16 20:31:00,
2013-01-16 14:36:00,32.4,30.9,30.11,NNW,346,0.0,0.0,94,0.00,,---,0.00,VWS V14.01,2013-01-16 20:36:00,
2013-01-16 14:37:00,32.3,30.8,30.11,NNW,346,0.0,0.0,94,0.00,,---,0.00,VWS V14.01,2013-01-16 20:37:00,
2013-01-16 14:41:00,32.4,30.9,30.12,NNW,346,0.0,0.0,94,0.00,,---,0.00,VWS V14.01,2013-01-16 20:41:00,
2013-01-16 14:42:00,32.4,30.9,30.12,NNW,346,0.0,0.0,94,0.00,,---,0.00,VWS V14.01,2013-01-16 20:42:00,
2013-01-16 14:46:00,32.5,31.0,30.13,NNW,346,0.0,0.0,94,0.00,,---,0.00,VWS V14.01,2013-01-16 20:46:00,
2013-01-16 14:47:00,32.5,31.0,30.13,NNW,346,0.0,0.0,94,0.00,,---,0.00,VWS V14.01,2013-01-16 20:47:00,
2013-01-16 14:51:00,32.5,31.0,30.12,NNW,346,0.0,0.0,94,0.00,,---,0.00,VWS V14.01,2013-01-16 20:51:00,
2013-01-16 14:52:00,32.5,31.0,30.12,NNW,346,0.0,0.0,94,0.00,,---,0.00,VWS V14.01,2013-01-16 20:52:00,
2013-01-16 14:56:00,32.5,31.0,30.12,NNW,346,0.0,0.0,94,0.00,,---,0.00,VWS V14.01,2013-01-16 20:56:00,
2013-01-16 14:57:00,32.5,31.0,30.12,NNW,346,0.0,0.0,94,0.00,,---,0.00,VWS V14.01,2013-01-16 20:57:00,
2013-01-16 15:01:00,32.4,30.9,30.12,NNW,346,0.0,0.0,94,0.00,,---,0.00,VWS V14.01,2013-01-16 21:01:00,
2013-01-16 15:02:00,32.4,30.9,30.12,NNW,346,0.0,0.0,94,0.00,,---,0.00,VWS V14.01,2013-01-16 21:02:00,
2013-01-16 15:06:00,32.5,31.0,30.12,NNW,345,0.0,0.0,94,0.00,,---,0.00,VWS V14.01,2013-01-16 21:06:00,
2013-01-16 15:07:00,32.5,31.0,30.13,NNW,346,0.0,0.0,94,0.00,,---,0.00,VWS V14.01,2013-01-16 21:07:00,
2013-01-16 15:12:00,32.5,31.0,30.13,NNW,346,0.0,0.0,94,0.00,,---,0.00,VWS V14.01,2013-01-16 21:12:00,
2013-01-16 15:17:00,32.4,30.9,30.12,NNW,346,0.0,0.0,94,0.00,,---,0.00,VWS V14.01,2013-01-16 21:17:00,
2013-01-16 15:22:00,32.5,31.0,30.12,NNW,347,0.0,0.0,94,0.00,,---,0.00,VWS V14.01,2013-01-16 21:22:00,
2013-01-16 15:23:00,32.5,31.0,30.12,NNW,346,0.0,0.0,94,0.00,,---,0.00,VWS V14.01,2013-01-16 21:23:00,
2013-01-16 15:27:00,32.6,31.1,30.12,NNW,346,0.0,0.0,94,0.00,,---,0.00,VWS V14.01,2013-01-16 21:27:00,
2013-01-16 15:28:00,32.6,31.1,30.12,NNW,346,0.0,0.0,94,0.00,,---,0.00,VWS V14.01,2013-01-16 21:28:00,
2013-01-16 15:32:00,32.6,31.1,30.13,NNW,346,0.0,0.0,94,0.00,,---,0.00,VWS V14.01,2013-01-16 21:32:00,
2013-01-16 15:33:00,32.6,31.1,30.13,NNW,346,0.0,0.0,94,0.00,,---,0.00,VWS V14.01,2013-01-16 21:33:00,
2013-01-16 15:37:00,32.5,31.0,30.13,NNW,346,0.0,0.0,94,0.00,,---,0.00,VWS V14.01,2013-01-16 21:37:00,
2013-01-16 15:38:00,32.5,31.0,30.13,NNW,345,0.0,0.0,94,0.00,,---,0.00,VWS V14.01,2013-01-16 21:38:00,
2013-01-16 15:42:00,32.5,31.0,30.13,NNW,347,0.0,0.0,94,0.00,,---,0.00,VWS V14.01,2013-01-16 21:42:00,
2013-01-16 15:43:00,32.5,31.0,30.12,NNW,346,0.0,0.0,94,0.00,,---,0.00,VWS V14.01,2013-01-16 21:43:00,
2013-01-16 15:48:00,32.5,31.0,30.12,NNW,346,0.0,0.0,94,0.00,,---,0.00,VWS V14.01,2013-01-16 21:48:00,
2013-01-16 15:53:00,32.5,31.0,30.13,NNW,345,0.0,0.0,94,0.00,,---,0.00,VWS V14.01,2013-01-16 21:53:00,
2013-01-16 15:58:00,32.6,31.1,30.12,NNW,346,0.0,0.0,94,0.00,,---,0.00,VWS V14.01,2013-01-16 21:58:00,
2013-01-16 15:59:00,32.6,31.1,30.12,NNW,346,0.0,0.0,94,0.00,,---,0.00,VWS V14.01,2013-01-16 21:59:00,
2013-01-16 16:03:00,32.6,31.1,30.12,NNW,345,0.0,0.0,94,0.00,,---,0.00,VWS V14.01,2013-01-16 22:03:00,
2013-01-16 16:04:00,32.6,31.1,30.12,NNW,346,0.0,0.0,94,0.00,,---,0.00,VWS V14.01,2013-01-16 22:04:00,
2013-01-16 16:08:00,32.6,31.1,30.12,NNW,345,0.0,0.0,94,0.00,,---,0.00,VWS V14.01,2013-01-16 22:08:00,
2013-01-16 16:09:00,32.7,31.2,30.12,NNW,345,0.0,0.0,94,0.00,,---,0.00,VWS V14.01,2013-01-16 22:09:00,
2013-01-16 16:13:00,32.7,31.4,30.12,NNW,344,0.0,0.0,95,0.00,,---,0.00,VWS V14.01,2013-01-16 22:13:00,
2013-01-16 16:14:00,32.7,31.4,30.13,NNW,345,0.0,0.0,95,0.00,,---,0.00,VWS V14.01,2013-01-16 22:14:00,
2013-01-16 16:18:00,32.7,31.4,30.13,NNW,344,0.0,0.0,95,0.00,,---,0.00,VWS V14.01,2013-01-16 22:18:00,
2013-01-16 16:19:00,32.7,31.4,30.13,NNW,345,0.0,0.0,95,0.00,,---,0.00,VWS V14.01,2013-01-16 22:19:00,
2013-01-16 16:23:00,32.7,31.4,30.13,NNW,345,0.0,0.0,95,0.00,,---,0.00,VWS V14.01,2013-01-16 22:23:00,
2013-01-16 16:24:00,32.8,31.5,30.14,NNW,344,0.0,0.0,95,0.00,,---,0.00,VWS V14.01,2013-01-16 22:24:00,
2013-01-16 16:28:00,32.8,31.5,30.13,NNW,344,0.0,0.0,95,0.00,,---,0.00,VWS V14.01,2013-01-16 22:28:00,
2013-01-16 16:29:00,32.8,31.5,30.13,NNW,345,0.0,0.0,95,0.00,,---,0.00,VWS V14.01,2013-01-16 22:29:00,
2013-01-16 16:34:00,32.6,31.3,30.13,North,10,0.0,0.0,95,0.00,,---,0.00,VWS V14.01,2013-01-16 22:34:00,
2013-01-16 16:39:00,32.6,31.3,30.13,NE,51,0.0,1.0,95,0.00,,---,0.00,VWS V14.01,2013-01-16 22:39:00,
2013-01-16 16:44:00,32.5,31.2,30.13,NE,39,0.0,1.0,95,0.00,,---,0.00,VWS V14.01,2013-01-16 22:44:00,
2013-01-16 16:49:00,32.5,31.2,30.13,North,4,0.0,0.0,95,0.00,,---,0.00,VWS V14.01,2013-01-16 22:49:00,
2013-01-16 16:50:00,32.5,31.2,30.13,North,4,0.0,0.0,95,0.00,,---,0.00,VWS V14.01,2013-01-16 22:50:00,
2013-01-16 16:54:00,32.5,31.2,30.12,North,4,0.0,0.0,95,0.00,,---,0.00,VWS V14.01,2013-01-16 22:54:00,
2013-01-16 16:55:00,32.5,31.2,30.12,North,4,0.0,0.0,95,0.00,,---,0.00,VWS V14.01,2013-01-16 22:55:00,
2013-01-16 16:59:00,32.5,31.2,30.12,North,5,0.0,0.0,95,0.00,,---,0.00,VWS V14.01,2013-01-16 22:59:00,
2013-01-16 17:00:00,32.5,31.2,30.12,North,4,0.0,0.0,95,0.00,,---,0.00,VWS V14.01,2013-01-16 23:00:00,
2013-01-16 17:04:00,32.5,31.2,30.13,North,5,0.0,0.0,95,0.00,,---,0.00,VWS V14.01,2013-01-16 23:04:00,
2013-01-16 17:05:00,32.5,31.2,30.13,North,4,0.0,0.0,95,0.00,,---,0.00,VWS V14.01,2013-01-16 23:05:00,
2013-01-16 17:09:00,32.5,31.2,30.13,North,4,0.0,0.0,95,0.00,,---,0.00,VWS V14.01,2013-01-16 23:09:00,
2013-01-16 17:10:00,32.5,31.2,30.13,North,4,0.0,0.0,95,0.00,,---,0.00,VWS V14.01,2013-01-16 23:10:00,
2013-01-16 17:14:00,32.4,31.1,30.14,NNE,31,0.0,1.0,95,0.00,,---,0.00,VWS V14.01,2013-01-16 23:14:00,
2013-01-16 17:15:00,32.5,31.2,30.14,NNE,30,0.0,1.0,95,0.00,,---,0.00,VWS V14.01,2013-01-16 23:15:00,
2013-01-16 17:19:00,32.4,31.1,30.14,NNE,30,0.0,0.0,95,0.00,,---,0.00,VWS V14.01,2013-01-16 23:19:00,
2013-01-16 17:20:00,32.4,31.1,30.14,NNE,29,0.0,0.0,95,0.00,,---,0.00,VWS V14.01,2013-01-16 23:20:00,
2013-01-16 17:24:00,32.4,31.1,30.13,NNE,25,0.0,0.0,95,0.00,,---,0.00,VWS V14.01,2013-01-16 23:24:00,
2013-01-16 17:25:00,32.4,31.1,30.13,NNE,25,0.0,0.0,95,0.00,,---,0.00,VWS V14.01,2013-01-16 23:25:00,
2013-01-16 17:29:00,32.3,31.0,30.13,NNE,22,0.0,1.0,95,0.00,,---,0.00,VWS V14.01,2013-01-16 23:29:00,
2013-01-16 17:30:00,32.3,31.0,30.13,NNE,22,0.0,1.0,95,0.00,,---,0.00,VWS V14.01,2013-01-16 23:30:00,
2013-01-16 17:31:00,32.2,30.9,30.13,NNE,22,0.0,1.0,95,0.00,,---,0.00,VWS V14.01,2013-01-16 23:31:00,
2013-01-16 17:34:00,32.1,30.8,30.13,NNE,22,0.0,0.0,95,0.00,,---,0.00,VWS V14.01,2013-01-16 23:34:00,
2013-01-16 17:35:00,32.1,30.8,30.13,NNE,22,0.0,0.0,95,0.00,,---,0.00,VWS V14.01,2013-01-16 23:35:00,
2013-01-16 17:36:00,32.1,30.8,30.13,NNE,22,0.0,0.0,95,0.00,,---,0.00,VWS V14.01,2013-01-16 23:36:00,
2013-01-16 17:40:00,32.1,30.8,30.13,NNE,22,0.0,0.0,95,0.00,,---,0.00,VWS V14.01,2013-01-16 23:40:00,
2013-01-16 17:41:00,32.1,30.8,30.13,NNE,22,0.0,0.0,95,0.00,,---,0.00,VWS V14.01,2013-01-16 23:41:00,
2013-01-16 17:45:00,32.1,30.8,30.13,NNE,17,0.0,0.0,95,0.00,,---,0.00,VWS V14.01,2013-01-16 23:45:00,
2013-01-16 17:46:00,32.1,30.8,30.13,NNE,15,0.0,0.0,95,0.00,,---,0.00,VWS V14.01,2013-01-16 23:46:00,
2013-01-16 17:50:00,32.0,30.7,30.13,North,11,0.0,0.0,95,0.00,,---,0.00,VWS V14.01,2013-01-16 23:50:00,
2013-01-16 17:51:00,32.0,30.7,30.13,North,11,0.0,0.0,95,0.00,,---,0.00,VWS V14.01,2013-01-16 23:51:00,
2013-01-16 17:55:00,32.0,30.7,30.13,North,11,0.0,0.0,95,0.00,,---,0.00,VWS V14.01,2013-01-16 23:55:00,
2013-01-16 17:56:00,32.0,30.7,30.13,NNE,12,0.0,0.0,95,0.00,,---,0.00,VWS V14.01,2013-01-16 23:56:00,
2013-01-16 18:00:00,31.9,30.6,30.13,North,11,0.0,0.0,95,0.00,,---,0.00,VWS V14.01,2013-01-17 00:00:00,
2013-01-16 18:01:00,31.9,30.6,30.13,North,11,0.0,0.0,95,0.00,,---,0.00,VWS V14.01,2013-01-17 00:01:00,
2013-01-16 18:02:00,31.9,30.6,30.13,North,11,0.0,0.0,95,0.00,,---,0.00,VWS V14.01,2013-01-17 00:02:00,
2013-01-16 18:05:00,32.0,30.7,30.14,North,6,0.0,0.0,95,0.00,,---,0.00,VWS V14.01,2013-01-17 00:05:00,
2013-01-16 18:06:00,32.0,30.7,30.14,North,6,0.0,0.0,95,0.00,,---,0.00,VWS V14.01,2013-01-17 00:06:00,
2013-01-16 18:07:00,32.0,30.7,30.14,North,6,0.0,0.0,95,0.00,,---,0.00,VWS V14.01,2013-01-17 00:07:00,
2013-01-16 18:10:00,32.0,30.7,30.14,North,4,0.0,0.0,95,0.00,,---,0.00,VWS V14.01,2013-01-17 00:10:00,
2013-01-16 18:11:00,32.0,30.7,30.14,North,4,0.0,0.0,95,0.00,,---,0.00,VWS V14.01,2013-01-17 00:11:00,
2013-01-16 18:12:00,32.0,30.7,30.14,North,4,0.0,0.0,95,0.00,,---,0.00,VWS V14.01,2013-01-17 00:12:00,
2013-01-16 18:15:00,31.9,30.6,30.14,North,4,0.0,0.0,95,0.00,,---,0.00,VWS V14.01,2013-01-17 00:15:00,
2013-01-16 18:16:00,31.9,30.6,30.14,North,5,0.0,0.0,95,0.00,,---,0.00,VWS V14.01,2013-01-17 00:16:00,
2013-01-16 18:17:00,31.9,30.6,30.14,North,4,0.0,0.0,95,0.00,,---,0.00,VWS V14.01,2013-01-17 00:17:00,
2013-01-16 18:20:00,31.8,30.5,30.15,North,4,0.0,0.0,95,0.00,,---,0.00,VWS V14.01,2013-01-17 00:20:00,
2013-01-16 18:21:00,31.8,30.5,30.15,North,4,0.0,0.0,95,0.00,,---,0.00,VWS V14.01,2013-01-17 00:21:00,
2013-01-16 18:22:00,31.8,30.5,30.14,North,4,0.0,0.0,95,0.00,,---,0.00,VWS V14.01,2013-01-17 00:22:00,
2013-01-16 18:23:00,31.8,30.5,30.14,North,349,0.0,0.0,95,0.00,,---,0.00,VWS V14.01,2013-01-17 00:23:00,
2013-01-16 18:25:00,31.7,30.4,30.15,North,349,0.0,0.0,95,0.00,,---,0.00,VWS V14.01,2013-01-17 00:25:00,
2013-01-16 18:26:00,31.7,30.4,30.15,North,349,0.0,0.0,95,0.00,,---,0.00,VWS V14.01,2013-01-17 00:26:00,
2013-01-16 18:27:00,31.7,30.4,30.15,North,349,0.0,0.0,95,0.00,,---,0.00,VWS V14.01,2013-01-17 00:27:00,
2013-01-16 18:28:00,31.7,30.4,30.15,North,349,0.0,0.0,95,0.00,,---,0.00,VWS V14.01,2013-01-17 00:28:00,
2013-01-16 18:30:00,31.7,30.4,30.15,North,349,0.0,0.0,95,0.00,,---,0.00,VWS V14.01,2013-01-17 00:30:00,
2013-01-16 18:31:00,31.7,30.4,30.15,North,349,0.0,0.0,95,0.00,,---,0.00,VWS V14.01,2013-01-17 00:31:00,
2013-01-16 18:32:00,31.7,30.4,30.15,North,349,0.0,0.0,95,0.00,,---,0.00,VWS V14.01,2013-01-17 00:32:00,
2013-01-16 18:33:00,31.6,30.3,30.15,North,349,0.0,0.0,95,0.00,,---,0.00,VWS V14.01,2013-01-17 00:33:00,
2013-01-16 18:36:00,31.6,30.3,30.15,North,349,0.0,0.0,95,0.00,,---,0.00,VWS V14.01,2013-01-17 00:36:00,
2013-01-16 18:37:00,31.6,30.3,30.15,North,349,0.0,0.0,95,0.00,,---,0.00,VWS V14.01,2013-01-17 00:37:00,
2013-01-16 18:38:00,31.6,30.3,30.15,North,349,0.0,0.0,95,0.00,,---,0.00,VWS V14.01,2013-01-17 00:38:00,
2013-01-16 18:41:00,31.6,30.3,30.15,North,349,0.0,0.0,95,0.00,,---,0.00,VWS V14.01,2013-01-17 00:41:00,
2013-01-16 18:42:00,31.6,30.3,30.16,North,349,0.0,0.0,95,0.00,,---,0.00,VWS V14.01,2013-01-17 00:42:00,
2013-01-16 18:43:00,31.6,30.3,30.16,North,349,0.0,0.0,95,0.00,,---,0.00,VWS V14.01,2013-01-17 00:43:00,
2013-01-16 18:46:00,31.5,30.2,30.16,North,349,0.0,0.0,95,0.00,,---,0.00,VWS V14.01,2013-01-17 00:46:00,
2013-01-16 18:47:00,31.5,30.2,30.15,North,349,0.0,0.0,95,0.00,,---,0.00,VWS V14.01,2013-01-17 00:47:00,
2013-01-16 18:48:00,31.5,30.2,30.15,North,349,0.0,0.0,95,0.00,,---,0.00,VWS V14.01,2013-01-17 00:48:00,
2013-01-16 18:51:00,31.5,30.2,30.15,North,349,0.0,0.0,95,0.00,,---,0.00,VWS V14.01,2013-01-17 00:51:00,
2013-01-16 18:52:00,31.5,30.2,30.15,North,349,0.0,0.0,95,0.00,,---,0.00,VWS V14.01,2013-01-17 00:52:00,
2013-01-16 18:53:00,31.5,30.2,30.15,North,349,0.0,0.0,95,0.00,,---,0.00,VWS V14.01,2013-01-17 00:53:00,
2013-01-16 18:56:00,31.5,30.2,30.14,North,349,0.0,0.0,95,0.00,,---,0.00,VWS V14.01,2013-01-17 00:56:00,
2013-01-16 18:57:00,31.5,30.2,30.14,North,349,0.0,0.0,95,0.00,,---,0.00,VWS V14.01,2013-01-17 00:57:00,
2013-01-16 18:58:00,31.5,30.2,30.15,North,349,0.0,0.0,95,0.00,,---,0.00,VWS V14.01,2013-01-17 00:58:00,
2013-01-16 19:01:00,31.5,30.2,30.15,North,349,0.0,0.0,95,0.00,,---,0.00,VWS V14.01,2013-01-17 01:01:00,
2013-01-16 19:02:00,31.5,30.2,30.15,North,349,0.0,0.0,95,0.00,,---,0.00,VWS V14.01,2013-01-17 01:02:00,
2013-01-16 19:03:00,31.5,30.2,30.15,North,349,0.0,0.0,95,0.00,,---,0.00,VWS V14.01,2013-01-17 01:03:00,
2013-01-16 19:06:00,31.5,30.2,30.15,North,349,0.0,0.0,95,0.00,,---,0.00,VWS V14.01,2013-01-17 01:06:00,
2013-01-16 19:08:00,31.6,30.3,30.15,North,349,0.0,0.0,95,0.00,,---,0.00,VWS V14.01,2013-01-17 01:08:00,
2013-01-16 19:11:00,31.6,30.3,30.15,North,349,0.0,0.0,95,0.00,,---,0.00,VWS V14.01,2013-01-17 01:11:00,
2013-01-16 19:13:00,31.6,30.3,30.15,North,349,0.0,0.0,95,0.00,,---,0.00,VWS V14.01,2013-01-17 01:13:00,
2013-01-16 19:16:00,31.7,30.4,30.15,North,349,0.0,0.0,95,0.00,,---,0.00,VWS V14.01,2013-01-17 01:16:00,
2013-01-16 19:18:00,31.7,30.4,30.15,North,349,0.0,0.0,95,0.00,,---,0.00,VWS V14.01,2013-01-17 01:18:00,
2013-01-16 19:21:00,31.7,30.4,30.15,North,349,0.0,0.0,95,0.00,,---,0.00,VWS V14.01,2013-01-17 01:21:00,
2013-01-16 19:23:00,31.7,30.4,30.15,North,349,0.0,0.0,95,0.00,,---,0.00,VWS V14.01,2013-01-17 01:23:00,
2013-01-16 19:26:00,31.6,30.3,30.15,North,349,0.0,0.0,95,0.00,,---,0.00,VWS V14.01,2013-01-17 01:26:00,
2013-01-16 19:27:00,31.6,30.3,30.15,North,349,0.0,0.0,95,0.00,,---,0.00,VWS V14.01,2013-01-17 01:27:00,
2013-01-16 19:28:00,31.6,30.3,30.15,North,349,0.0,0.0,95,0.00,,---,0.00,VWS V14.01,2013-01-17 01:28:00,
2013-01-16 19:29:00,31.6,30.3,30.15,North,349,0.0,0.0,95,0.00,,---,0.00,VWS V14.01,2013-01-17 01:29:00,
2013-01-16 19:31:00,31.7,30.4,30.15,North,349,0.0,0.0,95,0.00,,---,0.00,VWS V14.01,2013-01-17 01:31:00,
2013-01-16 19:32:00,31.6,30.3,30.15,North,349,0.0,0.0,95,0.00,,---,0.00,VWS V14.01,2013-01-17 01:32:00,
2013-01-16 19:33:00,31.7,30.4,30.15,North,349,0.0,0.0,95,0.00,,---,0.00,VWS V14.01,2013-01-17 01:33:00,
2013-01-16 19:34:00,31.6,30.3,30.15,North,349,0.0,0.0,95,0.00,,---,0.00,VWS V14.01,2013-01-17 01:34:00,
2013-01-16 19:36:00,31.7,30.4,30.15,North,349,0.0,0.0,95,0.00,,---,0.00,VWS V14.01,2013-01-17 01:36:00,
2013-01-16 19:37:00,31.7,30.4,30.16,North,349,0.0,0.0,95,0.00,,---,0.00,VWS V14.01,2013-01-17 01:37:00,
2013-01-16 19:39:00,31.7,30.4,30.16,North,349,0.0,0.0,95,0.00,,---,0.00,VWS V14.01,2013-01-17 01:39:00,
2013-01-16 19:41:00,31.7,30.4,30.16,North,349,0.0,0.0,95,0.00,,---,0.00,VWS V14.01,2013-01-17 01:41:00,
2013-01-16 19:42:00,31.7,30.4,30.16,North,349,0.0,0.0,95,0.00,,---,0.00,VWS V14.01,2013-01-17 01:42:00,
2013-01-16 19:44:00,31.7,30.4,30.16,North,349,0.0,0.0,95,0.00,,---,0.00,VWS V14.01,2013-01-17 01:44:00,
2013-01-16 19:46:00,31.8,30.5,30.16,North,349,0.0,0.0,95,0.00,,---,0.00,VWS V14.01,2013-01-17 01:46:00,
2013-01-16 19:47:00,31.8,30.5,30.16,North,349,0.0,0.0,95,0.00,,---,0.00,VWS V14.01,2013-01-17 01:47:00,
2013-01-16 19:49:00,31.8,30.5,30.16,North,349,0.0,0.0,95,0.00,,---,0.00,VWS V14.01,2013-01-17 01:49:00,
2013-01-16 19:51:00,31.8,30.5,30.16,North,349,0.0,0.0,95,0.00,,---,0.00,VWS V14.01,2013-01-17 01:51:00,
2013-01-16 19:52:00,31.8,30.5,30.15,North,349,0.0,0.0,95,0.00,,---,0.00,VWS V14.01,2013-01-17 01:52:00,
2013-01-16 19:54:00,31.8,30.5,30.15,North,349,0.0,0.0,95,0.00,,---,0.00,VWS V14.01,2013-01-17 01:54:00,
2013-01-16 19:56:00,31.8,30.5,30.16,North,349,0.0,0.0,95,0.00,,---,0.00,VWS V14.01,2013-01-17 01:56:00,
2013-01-16 19:58:00,31.8,30.5,30.16,North,349,0.0,0.0,95,0.00,,---,0.00,VWS V14.01,2013-01-17 01:58:00,
2013-01-16 19:59:00,31.8,30.5,30.16,North,349,0.0,0.0,95,0.00,,---,0.00,VWS V14.01,2013-01-17 01:59:00,
2013-01-16 20:01:00,31.8,30.5,30.17,North,349,0.0,0.0,95,0.00,,---,0.00,VWS V14.01,2013-01-17 02:01:00,
2013-01-16 20:03:00,31.8,30.5,30.17,North,349,0.0,0.0,95,0.00,,---,0.00,VWS V14.01,2013-01-17 02:03:00,
2013-01-16 20:04:00,31.8,30.5,30.16,North,349,0.0,0.0,95,0.00,,---,0.00,VWS V14.01,2013-01-17 02:04:00,
2013-01-16 20:05:00,31.8,30.5,30.16,North,349,0.0,0.0,95,0.00,,---,0.00,VWS V14.01,2013-01-17 02:05:00,
2013-01-16 20:07:00,31.8,30.5,30.16,East,93,0.0,1.0,95,0.00,,---,0.00,VWS V14.01,2013-01-17 02:07:00,
2013-01-16 20:08:00,31.8,30.5,30.16,East,93,0.0,1.0,95,0.00,,---,0.00,VWS V14.01,2013-01-17 02:08:00,
2013-01-16 20:09:00,31.8,30.5,30.16,East,93,0.0,1.0,95,0.00,,---,0.00,VWS V14.01,2013-01-17 02:09:00,
2013-01-16 20:10:00,31.8,30.5,30.16,East,93,0.0,1.0,95,0.00,,---,0.00,VWS V14.01,2013-01-17 02:10:00,
2013-01-16 20:12:00,31.8,30.5,30.16,East,93,0.0,1.0,95,0.00,,---,0.00,VWS V14.01,2013-01-17 02:12:00,
2013-01-16 20:13:00,31.8,30.5,30.17,East,93,0.0,1.0,95,0.00,,---,0.00,VWS V14.01,2013-01-17 02:13:00,
2013-01-16 20:14:00,31.8,30.5,30.17,East,93,0.0,1.0,95,0.00,,---,0.00,VWS V14.01,2013-01-17 02:14:00,
2013-01-16 20:15:00,31.8,30.5,30.17,East,93,0.0,1.0,95,0.00,,---,0.00,VWS V14.01,2013-01-17 02:15:00,
2013-01-16 20:17:00,31.8,30.5,30.16,East,92,0.0,0.0,95,0.00,,---,0.00,VWS V14.01,2013-01-17 02:17:00,
2013-01-16 20:18:00,31.8,30.5,30.16,East,93,0.0,0.0,95,0.00,,---,0.00,VWS V14.01,2013-01-17 02:18:00,
2013-01-16 20:19:00,31.8,30.5,30.16,East,93,0.0,0.0,95,0.00,,---,0.00,VWS V14.01,2013-01-17 02:19:00,
2013-01-16 20:20:00,31.8,30.5,30.16,East,93,0.0,0.0,95,0.00,,---,0.00,VWS V14.01,2013-01-17 02:20:00,
2013-01-16 20:22:00,31.8,30.5,30.16,East,92,0.0,0.0,95,0.00,,---,0.00,VWS V14.01,2013-01-17 02:22:00,
2013-01-16 20:23:00,31.8,30.5,30.16,East,93,0.0,0.0,95,0.00,,---,0.00,VWS V14.01,2013-01-17 02:23:00,
2013-01-16 20:24:00,31.9,30.6,30.16,East,92,0.0,0.0,95,0.00,,---,0.00,VWS V14.01,2013-01-17 02:24:00,
2013-01-16 20:25:00,31.9,30.6,30.16,East,93,0.0,0.0,95,0.00,,---,0.00,VWS V14.01,2013-01-17 02:25:00,
2013-01-16 20:27:00,31.9,30.6,30.16,East,93,0.0,0.0,95,0.00,,---,0.00,VWS V14.01,2013-01-17 02:27:00,
2013-01-16 20:28:00,31.9,30.6,30.16,East,93,0.0,0.0,95,0.00,,---,0.00,VWS V14.01,2013-01-17 02:28:00,
2013-01-16 20:29:00,31.9,30.6,30.16,East,92,0.0,0.0,95,0.00,,---,0.00,VWS V14.01,2013-01-17 02:29:00,
2013-01-16 20:30:00,31.9,30.6,30.16,East,92,0.0,0.0,95,0.00,,---,0.00,VWS V14.01,2013-01-17 02:30:00,
2013-01-16 20:32:00,31.9,30.6,30.17,East,92,0.0,0.0,95,0.00,,---,0.00,VWS V14.01,2013-01-17 02:32:00,
2013-01-16 20:33:00,31.9,30.6,30.17,East,93,0.0,0.0,95,0.00,,---,0.00,VWS V14.01,2013-01-17 02:33:00,
2013-01-16 20:35:00,31.9,30.6,30.17,East,92,0.0,0.0,95,0.00,,---,0.00,VWS V14.01,2013-01-17 02:35:00,
2013-01-16 20:37:00,31.9,30.6,30.16,East,92,0.0,0.0,95,0.00,,---,0.00,VWS V14.01,2013-01-17 02:37:00,
2013-01-16 20:38:00,32.0,30.7,30.16,East,93,0.0,0.0,95,0.00,,---,0.00,VWS V14.01,2013-01-17 02:38:00,
2013-01-16 20:40:00,31.9,30.6,30.16,East,93,0.0,0.0,95,0.00,,---,0.00,VWS V14.01,2013-01-17 02:40:00,
2013-01-16 20:42:00,31.9,30.6,30.16,East,93,0.0,0.0,95,0.00,,---,0.00,VWS V14.01,2013-01-17 02:42:00,
2013-01-16 20:43:00,31.9,30.6,30.16,East,93,0.0,0.0,95,0.00,,---,0.00,VWS V14.01,2013-01-17 02:43:00,
2013-01-16 20:45:00,31.9,30.6,30.17,East,93,0.0,0.0,95,0.00,,---,0.00,VWS V14.01,2013-01-17 02:45:00,
2013-01-16 20:46:00,31.9,30.6,30.17,East,93,0.0,0.0,95,0.00,,---,0.00,VWS V14.01,2013-01-17 02:46:00,
2013-01-16 20:47:00,32.0,31.0,30.17,East,92,0.0,0.0,96,0.00,,---,0.00,VWS V14.01,2013-01-17 02:47:00,
2013-01-16 20:48:00,32.0,31.0,30.17,East,93,0.0,0.0,96,0.00,,---,0.00,VWS V14.01,2013-01-17 02:48:00,
2013-01-16 20:50:00,32.0,31.0,30.17,East,92,0.0,0.0,96,0.00,,---,0.00,VWS V14.01,2013-01-17 02:50:00,
2013-01-16 20:51:00,32.0,31.0,30.17,East,93,0.0,0.0,96,0.00,,---,0.00,VWS V14.01,2013-01-17 02:51:00,
2013-01-16 20:52:00,32.1,31.1,30.17,East,93,0.0,0.0,96,0.00,,---,0.00,VWS V14.01,2013-01-17 02:52:00,
2013-01-16 20:54:00,32.1,31.1,30.17,East,93,0.0,0.0,96,0.00,,---,0.00,VWS V14.01,2013-01-17 02:54:00,
2013-01-16 20:55:00,32.1,31.1,30.17,East,93,0.0,0.0,96,0.00,,---,0.00,VWS V14.01,2013-01-17 02:55:00,
2013-01-16 20:56:00,32.1,31.1,30.17,East,93,0.0,0.0,96,0.00,,---,0.00,VWS V14.01,2013-01-17 02:56:00,
2013-01-16 20:57:00,32.1,31.1,30.17,East,93,0.0,0.0,96,0.00,,---,0.00,VWS V14.01,2013-01-17 02:57:00,
2013-01-16 20:59:00,32.1,31.1,30.17,East,93,0.0,0.0,96,0.00,,---,0.00,VWS V14.01,2013-01-17 02:59:00,
2013-01-16 21:00:00,32.1,31.1,30.17,East,93,0.0,0.0,96,0.00,,---,0.00,VWS V14.01,2013-01-17 03:00:00,
2013-01-16 21:01:00,32.1,31.1,30.17,East,93,0.0,0.0,96,0.00,,---,0.00,VWS V14.01,2013-01-17 03:01:00,
2013-01-16 21:02:00,32.1,31.1,30.17,East,93,0.0,0.0,96,0.00,,---,0.00,VWS V14.01,2013-01-17 03:02:00,
2013-01-16 21:05:00,32.2,31.2,30.17,East,93,0.0,0.0,96,0.00,,---,0.00,VWS V14.01,2013-01-17 03:05:00,
2013-01-16 21:06:00,32.1,31.1,30.17,East,93,0.0,0.0,96,0.00,,---,0.00,VWS V14.01,2013-01-17 03:06:00,
2013-01-16 21:07:00,32.1,31.1,30.17,East,92,0.0,0.0,96,0.00,,---,0.00,VWS V14.01,2013-01-17 03:07:00,
2013-01-16 21:10:00,32.2,31.2,30.17,East,93,0.0,0.0,96,0.00,,---,0.00,VWS V14.01,2013-01-17 03:10:00,
2013-01-16 21:11:00,32.2,31.2,30.17,East,92,0.0,0.0,96,0.00,,---,0.00,VWS V14.01,2013-01-17 03:11:00,
2013-01-16 21:13:00,32.2,31.2,30.17,East,92,0.0,0.0,96,0.00,,---,0.00,VWS V14.01,2013-01-17 03:13:00,
2013-01-16 21:15:00,32.2,31.2,30.17,East,93,0.0,0.0,96,0.00,,---,0.00,VWS V14.01,2013-01-17 03:15:00,
2013-01-16 21:16:00,32.2,31.2,30.17,East,93,0.0,0.0,96,0.00,,---,0.00,VWS V14.01,2013-01-17 03:16:00,
2013-01-16 21:18:00,32.2,31.2,30.17,East,93,0.0,0.0,96,0.00,,---,0.00,VWS V14.01,2013-01-17 03:18:00,
2013-01-16 21:20:00,32.2,31.2,30.16,East,92,0.0,0.0,96,0.00,,---,0.00,VWS V14.01,2013-01-17 03:20:00,
2013-01-16 21:21:00,32.2,31.2,30.16,East,92,0.0,0.0,96,0.00,,---,0.00,VWS V14.01,2013-01-17 03:21:00,
2013-01-16 21:23:00,32.2,31.2,30.16,East,93,0.0,0.0,96,0.00,,---,0.00,VWS V14.01,2013-01-17 03:23:00,
2013-01-16 21:25:00,32.2,31.2,30.16,East,93,0.0,0.0,96,0.00,,---,0.00,VWS V14.01,2013-01-17 03:25:00,
2013-01-16 21:26:00,32.2,31.2,30.17,East,93,0.0,0.0,96,0.00,,---,0.00,VWS V14.01,2013-01-17 03:26:00,
2013-01-16 21:28:00,32.2,31.2,30.16,East,93,0.0,0.0,96,0.00,,---,0.00,VWS V14.01,2013-01-17 03:28:00,
2013-01-16 21:30:00,32.2,31.2,30.17,East,93,0.0,0.0,96,0.00,,---,0.00,VWS V14.01,2013-01-17 03:30:00,
2013-01-16 21:31:00,32.2,31.2,30.17,East,93,0.0,0.0,96,0.00,,---,0.00,VWS V14.01,2013-01-17 03:31:00,
2013-01-16 21:32:00,32.2,31.2,30.17,East,93,0.0,0.0,96,0.00,,---,0.00,VWS V14.01,2013-01-17 03:32:00,
2013-01-16 21:33:00,32.2,31.2,30.16,East,93,0.0,0.0,96,0.00,,---,0.00,VWS V14.01,2013-01-17 03:33:00,
2013-01-16 21:36:00,32.2,31.2,30.16,East,92,0.0,0.0,96,0.00,,---,0.00,VWS V14.01,2013-01-17 03:36:00,
2013-01-16 21:37:00,32.2,31.2,30.16,East,92,0.0,0.0,96,0.00,,---,0.00,VWS V14.01,2013-01-17 03:37:00,
2013-01-16 21:38:00,32.2,31.2,30.16,East,93,0.0,0.0,96,0.00,,---,0.00,VWS V14.01,2013-01-17 03:38:00,
2013-01-16 21:41:00,32.1,31.1,30.16,East,93,0.0,0.0,96,0.00,,---,0.00,VWS V14.01,2013-01-17 03:41:00,
2013-01-16 21:42:00,32.2,31.2,30.16,East,93,0.0,0.0,96,0.00,,---,0.00,VWS V14.01,2013-01-17 03:42:00,
2013-01-16 21:43:00,32.2,31.2,30.16,East,92,0.0,0.0,96,0.00,,---,0.00,VWS V14.01,2013-01-17 03:43:00,
2013-01-16 21:46:00,32.1,31.1,30.16,East,93,0.0,0.0,96,0.00,,---,0.00,VWS V14.01,2013-01-17 03:46:00,
2013-01-16 21:47:00,32.2,31.2,30.16,East,92,0.0,0.0,96,0.00,,---,0.00,VWS V14.01,2013-01-17 03:47:00,
2013-01-16 21:49:00,32.2,31.2,30.16,East,93,0.0,0.0,96,0.00,,---,0.00,VWS V14.01,2013-01-17 03:49:00,
2013-01-16 21:51:00,32.2,31.2,30.16,East,93,0.0,0.0,96,0.00,,---,0.00,VWS V14.01,2013-01-17 03:51:00,
2013-01-16 21:52:00,32.1,31.1,30.16,East,92,0.0,0.0,96,0.00,,---,0.00,VWS V14.01,2013-01-17 03:52:00,
2013-01-16 21:54:00,32.1,31.1,30.16,East,93,0.0,0.0,96,0.00,,---,0.00,VWS V14.01,2013-01-17 03:54:00,
2013-01-16 21:56:00,32.1,31.1,30.16,East,93,0.0,0.0,96,0.00,,---,0.00,VWS V14.01,2013-01-17 03:56:00,
2013-01-16 21:57:00,32.1,31.1,30.16,East,93,0.0,0.0,96,0.00,,---,0.00,VWS V14.01,2013-01-17 03:57:00,
2013-01-16 21:59:00,32.1,31.1,30.16,East,93,0.0,0.0,96,0.00,,---,0.00,VWS V14.01,2013-01-17 03:59:00,
2013-01-16 22:01:00,32.1,31.1,30.16,East,92,0.0,0.0,96,0.00,,---,0.00,VWS V14.01,2013-01-17 04:01:00,
2013-01-16 22:02:00,32.1,31.1,30.16,East,92,0.0,0.0,96,0.00,,---,0.00,VWS V14.01,2013-01-17 04:02:00,
2013-01-16 22:04:00,32.2,31.2,30.16,East,92,0.0,0.0,96,0.00,,---,0.00,VWS V14.01,2013-01-17 04:04:00,
2013-01-16 22:06:00,32.1,31.1,30.16,East,93,0.0,0.0,96,0.00,,---,0.00,VWS V14.01,2013-01-17 04:06:00,
2013-01-16 22:07:00,32.1,31.1,30.16,East,92,0.0,0.0,96,0.00,,---,0.00,VWS V14.01,2013-01-17 04:07:00,
2013-01-16 22:08:00,32.1,31.1,30.16,East,92,0.0,0.0,96,0.00,,---,0.00,VWS V14.01,2013-01-17 04:08:00,
2013-01-16 22:09:00,32.1,31.1,30.16,East,93,0.0,0.0,96,0.00,,---,0.00,VWS V14.01,2013-01-17 04:09:00,
2013-01-16 22:11:00,32.1,31.1,30.16,East,93,0.0,0.0,96,0.00,,---,0.00,VWS V14.01,2013-01-17 04:11:00,
2013-01-16 22:12:00,32.1,31.1,30.16,East,93,0.0,0.0,96,0.00,,---,0.00,VWS V14.01,2013-01-17 04:12:00,
2013-01-16 22:13:00,32.1,31.1,30.16,East,92,0.0,0.0,96,0.00,,---,0.00,VWS V14.01,2013-01-17 04:13:00,
2013-01-16 22:14:00,32.1,31.1,30.16,East,93,0.0,0.0,96,0.00,,---,0.00,VWS V14.01,2013-01-17 04:14:00,
2013-01-16 22:17:00,32.2,31.2,30.16,East,92,0.0,0.0,96,0.00,,---,0.00,VWS V14.01,2013-01-17 04:17:00,
2013-01-16 22:18:00,32.2,31.2,30.16,East,93,0.0,0.0,96,0.00,,---,0.00,VWS V14.01,2013-01-17 04:18:00,
2013-01-16 22:19:00,32.2,31.2,30.16,East,93,0.0,0.0,96,0.00,,---,0.00,VWS V14.01,2013-01-17 04:19:00,
2013-01-16 22:22:00,32.2,31.2,30.16,East,93,0.0,0.0,96,0.00,,---,0.00,VWS V14.01,2013-01-17 04:22:00,
2013-01-16 22:23:00,32.3,31.3,30.16,East,92,0.0,0.0,96,0.00,,---,0.00,VWS V14.01,2013-01-17 04:23:00,
2013-01-16 22:24:00,32.2,31.2,30.16,East,93,0.0,0.0,96,0.00,,---,0.00,VWS V14.01,2013-01-17 04:24:00,
2013-01-16 22:27:00,32.3,31.3,30.16,East,93,0.0,0.0,96,0.00,,---,0.00,VWS V14.01,2013-01-17 04:27:00,
2013-01-16 22:28:00,32.3,31.3,30.16,East,93,0.0,0.0,96,0.00,,---,0.00,VWS V14.01,2013-01-17 04:28:00,
2013-01-16 22:29:00,32.3,31.3,30.16,East,92,0.0,0.0,96,0.00,,---,0.00,VWS V14.01,2013-01-17 04:29:00,
2013-01-16 22:32:00,32.3,31.3,30.15,East,93,0.0,0.0,96,0.00,,---,0.00,VWS V14.01,2013-01-17 04:32:00,
2013-01-16 22:33:00,32.3,31.3,30.15,East,92,0.0,0.0,96,0.00,,---,0.00,VWS V14.01,2013-01-17 04:33:00,
2013-01-16 22:34:00,32.3,31.3,30.15,East,91,0.0,0.0,96,0.00,,---,0.00,VWS V14.01,2013-01-17 04:34:00,
2013-01-16 22:37:00,32.3,31.3,30.15,East,91,0.0,0.0,96,0.00,,---,0.00,VWS V14.01,2013-01-17 04:37:00,
2013-01-16 22:38:00,32.3,31.3,30.15,East,91,0.0,0.0,96,0.00,,---,0.00,VWS V14.01,2013-01-17 04:38:00,
2013-01-16 22:40:00,32.3,31.3,30.15,East,91,0.0,0.0,96,0.00,,---,0.00,VWS V14.01,2013-01-17 04:40:00,
2013-01-16 22:42:00,32.3,31.3,30.15,East,91,0.0,0.0,96,0.00,,---,0.00,VWS V14.01,2013-01-17 04:42:00,
2013-01-16 22:43:00,32.3,31.3,30.15,East,91,0.0,0.0,96,0.00,,---,0.00,VWS V14.01,2013-01-17 04:43:00,
2013-01-16 22:45:00,32.3,31.3,30.15,East,91,0.0,0.0,96,0.00,,---,0.00,VWS V14.01,2013-01-17 04:45:00,
2013-01-16 22:47:00,32.3,31.3,30.15,East,91,0.0,0.0,96,0.00,,---,0.00,VWS V14.01,2013-01-17 04:47:00,
2013-01-16 22:48:00,32.3,31.3,30.15,East,91,0.0,0.0,96,0.00,,---,0.00,VWS V14.01,2013-01-17 04:48:00,
2013-01-16 22:50:00,32.3,31.3,30.15,East,91,0.0,0.0,96,0.00,,---,0.00,VWS V14.01,2013-01-17 04:50:00,
2013-01-16 22:52:00,32.3,31.3,30.15,East,91,0.0,0.0,96,0.00,,---,0.00,VWS V14.01,2013-01-17 04:52:00,
2013-01-16 22:53:00,32.3,31.3,30.15,East,91,0.0,0.0,96,0.00,,---,0.00,VWS V14.01,2013-01-17 04:53:00,
2013-01-16 22:55:00,32.3,31.3,30.14,East,91,0.0,0.0,96,0.00,,---,0.00,VWS V14.01,2013-01-17 04:55:00,
2013-01-16 22:57:00,32.3,31.3,30.15,East,91,0.0,0.0,96,0.00,,---,0.00,VWS V14.01,2013-01-17 04:57:00,
2013-01-16 22:58:00,32.3,31.3,30.14,East,91,0.0,0.0,96,0.00,,---,0.00,VWS V14.01,2013-01-17 04:58:00,
2013-01-16 23:00:00,32.3,31.3,30.14,East,91,0.0,0.0,96,0.00,,---,0.00,VWS V14.01,2013-01-17 05:00:00,
2013-01-16 23:01:00,32.3,31.3,30.14,East,91,0.0,0.0,96,0.00,,---,0.00,VWS V14.01,2013-01-17 05:01:00,
2013-01-16 23:03:00,32.3,31.3,30.14,East,91,0.0,0.0,96,0.00,,---,0.00,VWS V14.01,2013-01-17 05:03:00,
2013-01-16 23:05:00,32.3,31.3,30.14,East,91,0.0,0.0,96,0.00,,---,0.00,VWS V14.01,2013-01-17 05:05:00,
2013-01-16 23:06:00,32.3,31.3,30.15,East,91,0.0,0.0,96,0.00,,---,0.00,VWS V14.01,2013-01-17 05:06:00,
2013-01-16 23:08:00,32.3,31.3,30.15,East,91,0.0,0.0,96,0.00,,---,0.00,VWS V14.01,2013-01-17 05:08:00,
2013-01-16 23:10:00,32.3,31.3,30.15,East,91,0.0,0.0,96,0.00,,---,0.00,VWS V14.01,2013-01-17 05:10:00,
2013-01-16 23:11:00,32.3,31.3,30.15,East,91,0.0,0.0,96,0.00,,---,0.00,VWS V14.01,2013-01-17 05:11:00,
2013-01-16 23:13:00,32.3,31.3,30.14,East,91,0.0,0.0,96,0.00,,---,0.00,VWS V14.01,2013-01-17 05:13:00,
2013-01-16 23:15:00,32.3,31.3,30.14,East,91,0.0,0.0,96,0.00,,---,0.00,VWS V14.01,2013-01-17 05:15:00,
2013-01-16 23:16:00,32.3,31.3,30.14,East,91,0.0,0.0,96,0.00,,---,0.00,VWS V14.01,2013-01-17 05:16:00,
2013-01-16 23:18:00,32.3,31.3,30.15,East,91,0.0,0.0,96,0.00,,---,0.00,VWS V14.01,2013-01-17 05:18:00,
2013-01-16 23:20:00,32.3,31.3,30.15,East,91,0.0,0.0,96,0.00,,---,0.00,VWS V14.01,2013-01-17 05:20:00,
2013-01-16 23:21:00,32.3,31.3,30.15,East,91,0.0,0.0,96,0.00,,---,0.00,VWS V14.01,2013-01-17 05:21:00,
2013-01-16 23:23:00,32.2,31.2,30.14,East,91,0.0,0.0,96,0.00,,---,0.00,VWS V14.01,2013-01-17 05:23:00,
2013-01-16 23:26:00,32.2,31.2,30.14,East,91,0.0,0.0,96,0.00,,---,0.00,VWS V14.01,2013-01-17 05:26:00,
2013-01-16 23:28:00,32.2,31.2,30.14,East,91,0.0,0.0,96,0.00,,---,0.00,VWS V14.01,2013-01-17 05:28:00,
2013-01-16 23:31:00,32.2,31.2,30.15,East,91,0.0,0.0,96,0.00,,---,0.00,VWS V14.01,2013-01-17 05:31:00,
2013-01-16 23:33:00,32.2,31.2,30.15,East,91,0.0,0.0,96,0.00,,---,0.00,VWS V14.01,2013-01-17 05:33:00,
2013-01-16 23:36:00,32.2,30.9,30.15,East,91,0.0,0.0,95,0.00,,---,0.00,VWS V14.01,2013-01-17 05:36:00,
2013-01-16 23:37:00,32.2,30.9,30.15,East,91,0.0,0.0,95,0.00,,---,0.00,VWS V14.01,2013-01-17 05:37:00,
2013-01-16 23:38:00,32.1,30.8,30.15,East,91,0.0,0.0,95,0.00,,---,0.00,VWS V14.01,2013-01-17 05:38:00,
2013-01-16 23:39:00,32.1,30.8,30.15,East,91,0.0,0.0,95,0.00,,---,0.00,VWS V14.01,2013-01-17 05:39:00,
2013-01-16 23:41:00,32.1,30.8,30.15,East,91,0.0,0.0,95,0.00,,---,0.00,VWS V14.01,2013-01-17 05:41:00,
2013-01-16 23:42:00,32.1,30.8,30.15,East,91,0.0,0.0,95,0.00,,---,0.00,VWS V14.01,2013-01-17 05:42:00,
2013-01-16 23:44:00,32.1,30.8,30.15,East,91,0.0,0.0,95,0.00,,---,0.00,VWS V14.01,2013-01-17 05:44:00,
2013-01-16 23:46:00,32.2,30.9,30.15,East,91,0.0,0.0,95,0.00,,---,0.00,VWS V14.01,2013-01-17 05:46:00,
2013-01-16 23:47:00,32.2,30.9,30.15,East,91,0.0,0.0,95,0.00,,---,0.00,VWS V14.01,2013-01-17 05:47:00,
2013-01-16 23:49:00,32.1,30.8,30.15,East,91,0.0,0.0,95,0.00,,---,0.00,VWS V14.01,2013-01-17 05:49:00,
2013-01-16 23:51:00,32.1,30.8,30.15,East,91,0.0,0.0,95,0.00,,---,0.00,VWS V14.01,2013-01-17 05:51:00,
2013-01-16 23:52:00,32.2,30.9,30.16,East,91,0.0,0.0,95,0.00,,---,0.00,VWS V14.01,2013-01-17 05:52:00,
2013-01-16 23:54:00,32.2,30.9,30.15,East,91,0.0,0.0,95,0.00,,---,0.00,VWS V14.01,2013-01-17 05:54:00,
2013-01-16 23:56:00,32.2,30.9,30.15,East,91,0.0,0.0,95,0.00,,---,0.00,VWS V14.01,2013-01-17 05:56:00,
2013-01-16 23:57:00,32.1,30.8,30.15,East,91,0.0,0.0,95,0.00,,---,0.00,VWS V14.01,2013-01-17 05:57:00,
2013-01-16 23:59:00,32.1,30.8,30.15,East,91,0.0,0.0,95,0.00,,---,0.00,VWS V14.01,2013-01-17 05:59:00,